G1OCN-WX Weather Reports


time (UTC)temp
C
wind
direction
speed
KPH
gust
KPH
rain 1hr
cm
rain 24hr
cm
rain mn
cm
humidity
%
barometer
mb
20260507224332 11 146 14.5 20.9 0.00 0.00 0.00 80 1015.7
20260507224202 11 150 11.3 20.9 0.00 0.00 0.00 80 1015.8
20260507224102 11 161 9.7 14.5 0.00 0.00 0.00 80 1015.8
20260507224002 11 166 11.3 14.5 0.00 0.00 0.00 80 1015.8
20260507223832 11 151 16.1 19.3 0.00 0.00 0.00 80 1015.8
20260507223702 11 153 14.5 22.5 0.00 0.00 0.00 80 1015.7
20260507223602 11 148 14.5 20.9 0.00 0.00 0.00 80 1015.7
20260507223432 11 150 12.9 19.3 0.00 0.00 0.00 80 1015.8
20260507223332 11 139 12.9 19.3 0.00 0.00 0.00 80 1015.8
20260507223202 11 144 12.9 20.9 0.00 0.00 0.00 80 1015.8
20260507223102 11 147 11.3 16.1 0.00 0.00 0.00 80 1015.8
20260507222932 11 150 14.5 20.9 0.00 0.00 0.00 80 1015.8
20260507222832 11 141 12.9 19.3 0.00 0.00 0.00 80 1015.8
20260507222732 11 148 12.9 16.1 0.00 0.00 0.00 80 1015.7
20260507222602 11 149 12.9 19.3 0.00 0.00 0.00 80 1015.7
20260507222432 11 138 12.9 22.5 0.00 0.00 0.00 80 1015.7
20260507222332 11 144 12.9 19.3 0.00 0.00 0.00 80 1015.7
20260507222202 11 146 12.9 19.3 0.00 0.00 0.00 80 1015.7
20260507222032 11 146 12.9 19.3 0.00 0.00 0.00 80 1015.7
20260507221932 11 143 12.9 19.3 0.00 0.00 0.00 80 1015.7
20260507221802 11 142 14.5 19.3 0.00 0.00 0.00 80 1015.7
20260507221632 11 147 11.3 22.5 0.00 0.00 0.00 80 1015.7
20260507221532 11 143 14.5 16.1 0.00 0.00 0.00 80 1015.7
20260507221432 11 133 14.5 19.3 0.00 0.00 0.00 80 1015.7
20260507221302 11 141 12.9 19.3 0.00 0.00 0.00 80 1015.7
20260507221202 11 140 14.5 19.3 0.00 0.00 0.00 79 1015.7
20260507221102 11 144 12.9 19.3 0.00 0.00 0.00 79 1015.7
20260507220932 11 135 14.5 19.3 0.00 0.00 0.00 79 1015.7
20260507220832 11 137 16.1 20.9 0.00 0.00 0.00 79 1015.7
20260507220702 11 129 19.3 25.7 0.00 0.00 0.00 79 1015.7
20260507220602 11 144 14.5 24.1 0.00 0.00 0.00 79 1015.7
20260507220432 11 149 16.1 19.3 0.00 0.00 0.00 79 1015.7
20260507220332 11 145 16.1 22.5 0.00 0.00 0.00 79 1015.7
20260507220232 11 137 16.1 22.5 0.00 0.00 0.00 79 1015.7
20260507220002 11 134 16.1 24.1 0.00 0.00 0.00 79 1015.7
20260507215832 11 125 16.1 19.3 0.00 0.00 0.00 79 1015.7
20260507215732 11 111 16.1 24.1 0.00 0.00 0.00 79 1015.7
20260507215632 11 122 16.1 20.9 0.00 0.00 0.00 79 1015.6
20260507215502 11 120 14.5 22.5 0.00 0.00 0.00 79 1015.7
20260507215402 11 129 12.9 19.3 0.00 0.00 0.00 79 1015.7
20260507215232 11 123 16.1 19.3 0.00 0.00 0.00 79 1015.8
20260507215132 11 126 16.1 22.5 0.00 0.00 0.00 79 1015.8
20260507215002 11 117 14.5 24.1 0.00 0.00 0.00 79 1015.8
20260507214902 11 124 14.5 19.3 0.00 0.00 0.00 79 1015.8
20260507214802 11 126 12.9 19.3 0.00 0.00 0.00 79 1015.8
20260507214702 11 133 11.3 16.1 0.00 0.00 0.00 79 1015.8
20260507214602 11 135 11.3 19.3 0.00 0.00 0.00 79 1015.9
20260507214502 11 124 12.9 16.1 0.00 0.00 0.00 79 1015.8
20260507214402 11 139 14.5 20.9 0.00 0.00 0.00 79 1015.8
20260507214302 11 130 16.1 22.5 0.00 0.00 0.00 79 1015.8
20260507214132 11 128 14.5 19.3 0.00 0.00 0.00 79 1015.8
20260507214032 11 125 16.1 19.3 0.00 0.00 0.00 79 1015.8
20260507213932 11 132 16.1 22.5 0.00 0.00 0.00 79 1015.8
20260507213802 11 136 14.5 24.1 0.00 0.00 0.00 79 1015.7
20260507213702 11 130 14.5 19.3 0.00 0.00 0.00 79 1015.8
20260507213602 11 127 14.5 24.1 0.00 0.00 0.00 80 1015.7
20260507213502 11 129 14.5 19.3 0.00 0.00 0.00 79 1015.7
20260507213332 11 120 16.1 24.1 0.00 0.00 0.00 79 1015.8
20260507213232 11 120 20.9 22.5 0.00 0.00 0.00 79 1015.8
20260507213102 11 116 20.9 27.4 0.00 0.00 0.00 79 1015.8
20260507212932 11 121 14.5 22.5 0.00 0.00 0.00 79 1015.8
20260507212832 11 117 19.3 22.5 0.00 0.00 0.00 79 1015.8
20260507212702 11 117 16.1 25.7 0.00 0.00 0.00 79 1015.8
20260507212602 11 119 16.1 20.9 0.00 0.00 0.00 79 1015.8
20260507212432 11 122 20.9 27.4 0.00 0.00 0.00 79 1015.8
20260507212306 11 119 16.1 22.5 0.00 0.00 0.00 79 1015.8
20260507212202 11 124 19.3 20.9 0.00 0.00 0.00 79 1015.8
20260507212102 11 125 20.9 24.1 0.00 0.00 0.00 80 1015.8
20260507212002 11 121 19.3 25.7 0.00 0.00 0.00 80 1015.8
20260507211902 11 120 16.1 22.5 0.00 0.00 0.00 80 1015.8
20260507211802 11 113 14.5 19.3 0.00 0.00 0.00 80 1015.9
20260507211702 11 127 14.5 19.3 0.00 0.00 0.00 80 1015.8
20260507211602 11 114 14.5 19.3 0.00 0.00 0.00 80 1015.8
20260507211432 11 119 14.5 16.1 0.00 0.00 0.00 80 1015.8
20260507211332 11 121 16.1 20.9 0.00 0.00 0.00 80 1015.8
20260507211232 11 122 19.3 20.9 0.00 0.00 0.00 80 1015.8
20260507211132 11 122 16.1 24.1 0.00 0.00 0.00 81 1015.8
20260507211002 11 116 19.3 22.5 0.00 0.00 0.00 81 1015.8
20260507210902 11 110 16.1 24.1 0.00 0.00 0.00 81 1015.8
20260507210802 11 116 16.1 20.9 0.00 0.00 0.00 81 1015.8
20260507210632 11 114 19.3 22.5 0.00 0.00 0.00 82 1015.7
20260507210502 11 108 19.3 20.9 0.00 0.00 0.00 82 1015.7
20260507210402 11 110 19.3 20.9 0.00 0.00 0.00 82 1015.7
20260507210302 11 100 19.3 25.7 0.00 0.00 0.00 82 1015.7
20260507210202 11 110 20.9 25.7 0.00 0.00 0.00 82 1015.7
20260507210032 11 123 16.1 24.1 0.00 0.00 0.00 83 1015.7
20260507205902 11 117 16.1 19.3 0.00 0.00 0.00 83 1015.7
20260507205802 11 122 19.3 22.5 0.00 0.00 0.00 83 1015.6
20260507205632 11 115 14.5 20.9 0.00 0.00 0.00 83 1015.7
20260507205502 11 110 16.1 19.3 0.00 0.00 0.00 83 1015.7
20260507205402 11 106 16.1 20.9 0.00 0.00 0.00 83 1015.7
20260507205302 11 122 19.3 24.1 0.00 0.00 0.00 83 1015.7
20260507205202 11 112 14.5 24.1 0.00 0.00 0.00 83 1015.7
20260507205032 11 111 20.9 22.5 0.00 0.00 0.00 83 1015.7
20260507204932 11 114 16.1 25.7 0.00 0.00 0.00 83 1015.7
20260507204802 11 117 19.3 20.9 0.00 0.00 0.00 83 1015.7
20260507204702 11 112 19.3 22.5 0.00 0.00 0.00 83 1015.7
20260507204602 11 112 14.5 20.9 0.00 0.00 0.00 83 1015.6
20260507204431 11 125 19.3 22.5 0.00 0.00 0.00 83 1015.7
20260507204332 11 119 20.9 24.1 0.00 0.00 0.00 83 1015.7
20260507204232 11 115 19.3 24.1 0.00 0.00 0.00 83 1015.7
20260507204131 11 123 16.1 22.5 0.00 0.00 0.00 83 1015.6
20260507204002 11 115 19.3 24.1 0.00 0.00 0.00 83 1015.6
20260507203831 11 116 16.1 22.5 0.00 0.00 0.00 83 1015.6
20260507203732 11 111 12.9 19.3 0.00 0.00 0.00 83 1015.6
20260507203631 11 111 16.1 24.1 0.00 0.00 0.00 83 1015.6
20260507203531 11 111 14.5 20.9 0.00 0.00 0.00 83 1015.6
20260507203431 11 124 14.5 19.3 0.00 0.00 0.00 83 1015.6
20260507203331 11 99 12.9 19.3 0.00 0.00 0.00 83 1015.6
20260507203202 11 113 12.9 16.1 0.00 0.00 0.00 83 1015.5
20260507203031 11 115 16.1 20.9 0.00 0.00 0.00 82 1015.6
20260507202931 11 112 14.5 19.3 0.00 0.00 0.00 82 1015.5
20260507202831 11 117 14.5 20.9 0.00 0.00 0.00 82 1015.5
20260507202731 11 120 12.9 20.9 0.00 0.00 0.00 82 1015.5
20260507202601 11 118 14.5 19.3 0.00 0.00 0.00 82 1015.5
20260507202431 11 107 14.5 20.9 0.00 0.00 0.00 82 1015.5
20260507202331 11 109 12.9 20.9 0.00 0.00 0.00 83 1015.5
20260507202231 11 115 12.9 14.5 0.00 0.00 0.00 82 1015.5
20260507202101 11 123 14.5 19.3 0.00 0.00 0.00 83 1015.5
20260507202001 11 121 16.1 19.3 0.00 0.00 0.00 83 1015.5
20260507201901 11 111 16.1 19.3 0.00 0.00 0.00 83 1015.5
20260507201801 11 106 19.3 25.7 0.00 0.00 0.00 83 1015.5
20260507201631 11 121 16.1 19.3 0.00 0.00 0.00 83 1015.4
20260507201502 11 120 14.5 22.5 0.00 0.00 0.00 83 1015.4
20260507201331 11 114 19.3 22.5 0.00 0.00 0.00 83 1015.4
20260507201201 11 113 19.3 25.7 0.00 0.00 0.00 83 1015.4
20260507201031 11 119 12.9 20.9 0.00 0.00 0.00 83 1015.4
20260507200931 11 117 14.5 19.3 0.00 0.00 0.00 83 1015.3
20260507200801 11 116 19.3 22.5 0.00 0.00 0.00 83 1015.3
20260507200701 11 118 16.1 22.5 0.00 0.00 0.00 83 1015.3
20260507200601 11 127 12.9 19.3 0.00 0.00 0.00 83 1015.3
20260507200431 11 110 11.3 16.1 0.00 0.00 0.00 83 1015.2
20260507200331 11 117 14.5 14.5 0.00 0.00 0.00 83 1015.2
20260507200201 11 126 12.9 19.3 0.00 0.00 0.00 83 1015.3
20260507200001 11 127 14.5 19.3 0.00 0.00 0.00 83 1015.2
20260507195901 11 123 12.9 19.3 0.00 0.00 0.00 83 1015.2
20260507195732 11 122 14.5 19.3 0.00 0.00 0.00 82 1015.2
20260507195631 11 128 12.9 19.3 0.00 0.00 0.00 82 1015.1
20260507195531 11 120 12.9 19.3 0.00 0.00 0.00 82 1015.1
20260507195431 11 114 12.9 16.1 0.00 0.00 0.00 82 1015.1
20260507195331 11 113 12.9 19.3 0.00 0.00 0.00 82 1015.1
20260507195201 11 116 12.9 19.3 0.00 0.00 0.00 82 1015.1
20260507195101 11 111 14.5 19.3 0.00 0.00 0.00 82 1015.0
20260507195001 11 115 14.5 19.3 0.00 0.00 0.00 82 1015.0
20260507194901 11 119 16.1 20.9 0.00 0.00 0.00 82 1015.0
20260507194731 11 101 19.3 20.9 0.00 0.00 0.00 82 1015.0
20260507194631 11 112 19.3 22.5 0.00 0.00 0.00 82 1014.9
20260507194501 11 104 14.5 19.3 0.00 0.00 0.00 82 1014.9
20260507194401 11 113 16.1 22.5 0.00 0.00 0.00 82 1014.9
20260507194301 11 116 16.1 20.9 0.00 0.00 0.00 82 1014.9
20260507194201 11 103 16.1 20.9 0.00 0.00 0.00 82 1014.8
20260507194031 11 99 16.1 25.7 0.00 0.00 0.00 81 1014.8
20260507193931 11 97 14.5 19.3 0.00 0.00 0.00 81 1014.9
20260507193831 11 99 19.3 20.9 0.00 0.00 0.00 81 1014.8
20260507193701 11 109 20.9 25.7 0.00 0.00 0.00 81 1014.8
20260507193601 11 109 16.1 25.7 0.00 0.00 0.00 81 1014.9
20260507193431 11 110 16.1 25.7 0.00 0.00 0.00 81 1014.8
20260507193331 11 101 19.3 25.7 0.00 0.00 0.00 81 1014.9
20260507193231 11 85 16.1 25.7 0.00 0.00 0.00 81 1014.8
20260507193131 11 93 14.5 22.5 0.00 0.00 0.00 81 1014.8
20260507193031 11 101 14.5 19.3 0.00 0.00 0.00 81 1014.9
20260507192901 11 104 16.1 20.9 0.00 0.00 0.00 81 1014.9
20260507192801 11 103 19.3 20.9 0.00 0.00 0.00 80 1014.9
20260507192701 11 103 19.3 24.1 0.00 0.00 0.00 80 1014.9
20260507192531 11 114 14.5 24.1 0.00 0.00 0.00 80 1014.9
20260507192431 11 108 16.1 19.3 0.00 0.00 0.00 80 1014.9
20260507192331 11 106 16.1 22.5 0.00 0.00 0.00 80 1014.8
20260507192231 11 102 16.1 22.5 0.00 0.00 0.00 80 1014.9
20260507192101 11 102 16.1 22.5 0.00 0.00 0.00 80 1014.9
20260507192001 11 100 14.5 19.3 0.00 0.00 0.00 80 1014.8
20260507191831 11 101 16.1 22.5 0.00 0.00 0.00 80 1014.9
20260507191731 11 108 16.1 22.5 0.00 0.00 0.00 80 1014.8
20260507191601 11 110 14.5 22.5 0.00 0.00 0.00 80 1014.9
20260507191431 11 106 19.3 20.9 0.00 0.00 0.00 80 1014.9
20260507191331 11 103 19.3 22.5 0.00 0.00 0.00 80 1014.8
20260507191231 11 102 16.1 20.9 0.00 0.00 0.00 80 1014.9
20260507191131 11 105 16.1 20.9 0.00 0.00 0.00 80 1014.9
20260507191031 11 109 14.5 19.3 0.00 0.00 0.00 80 1014.9
20260507190901 11 99 14.5 20.9 0.00 0.00 0.00 80 1014.8
20260507190731 11 88 14.5 19.3 0.00 0.00 0.00 80 1014.9
20260507190631 11 104 14.5 19.3 0.00 0.00 0.00 80 1014.9
20260507190501 11 109 14.5 20.9 0.00 0.00 0.00 80 1014.8
20260507190331 11 103 14.5 19.3 0.00 0.00 0.00 80 1014.9
20260507190231 11 97 12.9 19.3 0.00 0.00 0.00 80 1014.8
20260507190131 11 103 12.9 16.1 0.00 0.00 0.00 80 1014.9
20260507190002 11 98 14.5 19.3 0.00 0.00 0.00 80 1014.8
20260507185831 11 111 12.9 19.3 0.00 0.00 0.00 80 1014.9
20260507185731 11 108 11.3 19.3 0.00 0.00 0.00 80 1014.8
20260507185631 11 95 12.9 14.5 0.00 0.00 0.00 80 1014.8
20260507185531 11 105 12.9 16.1 0.00 0.00 0.00 80 1014.8
20260507185401 11 103 12.9 16.1 0.00 0.00 0.00 80 1014.8
20260507185305 11 113 16.1 20.9 0.00 0.00 0.00 80 1014.8
20260507185131 11 96 16.1 20.9 0.00 0.00 0.00 80 1014.8
20260507185031 11 104 12.9 20.9 0.00 0.00 0.00 80 1014.8
20260507184931 11 101 12.9 19.3 0.00 0.00 0.00 80 1014.7
20260507184831 11 94 14.5 19.3 0.00 0.00 0.00 80 1014.8
20260507184731 11 108 12.9 19.3 0.00 0.00 0.00 80 1014.8
20260507184601 11 116 12.9 19.3 0.00 0.00 0.00 80 1014.8
20260507184431 11 116 12.9 19.3 0.00 0.00 0.00 80 1014.8
20260507184301 11 113 12.9 16.1 0.00 0.00 0.00 80 1014.8
20260507184201 11 118 14.5 19.3 0.00 0.00 0.00 80 1014.8
20260507184101 11 111 14.5 19.3 0.00 0.00 0.00 80 1014.8
20260507183931 11 110 14.5 20.9 0.00 0.00 0.00 80 1014.9
20260507183831 11 112 14.5 19.3 0.00 0.00 0.00 80 1014.9
20260507183731 11 111 12.9 16.1 0.00 0.00 0.00 80 1014.9
20260507183631 11 106 14.5 19.3 0.00 0.00 0.00 80 1014.9
20260507183531 11 115 14.5 19.3 0.00 0.00 0.00 80 1014.8
20260507183431 11 114 14.5 19.3 0.00 0.00 0.00 80 1014.9
20260507183331 11 117 16.1 19.3 0.00 0.00 0.00 80 1014.8
20260507183231 11 105 16.1 20.9 0.00 0.00 0.00 80 1014.8
20260507183130 11 105 14.5 19.3 0.00 0.00 0.00 80 1014.8
20260507183030 11 107 12.9 19.3 0.00 0.00 0.00 80 1014.9
20260507182930 11 102 12.9 14.5 0.00 0.00 0.00 80 1014.8
20260507182830 11 103 12.9 19.3 0.00 0.00 0.00 80 1014.8
20260507182730 11 113 14.5 19.3 0.00 0.00 0.00 80 1014.8
20260507182630 11 120 16.1 19.3 0.00 0.00 0.00 80 1014.9
20260507182530 11 107 14.5 20.9 0.00 0.00 0.00 80 1014.9
20260507182430 11 116 14.5 19.3 0.00 0.00 0.00 80 1014.9
20260507182330 11 113 14.5 19.3 0.00 0.00 0.00 80 1014.9
20260507182230 11 115 14.5 19.3 0.00 0.00 0.00 80 1014.9
20260507182130 11 113 14.5 19.3 0.00 0.00 0.00 80 1014.9
20260507182030 11 117 11.3 16.1 0.00 0.00 0.00 80 1014.9
20260507181929 11 113 9.7 12.9 0.00 0.00 0.00 80 1014.9
20260507181829 11 127 11.3 14.5 0.00 0.00 0.00 80 1014.9
20260507181729 11 120 12.9 19.3 0.00 0.00 0.00 80 1014.9
20260507181629 11 120 14.5 19.3 0.00 0.00 0.00 80 1014.9
20260507181529 11 124 14.5 19.3 0.00 0.00 0.00 80 1014.9
20260507181429 11 122 14.5 20.9 0.00 0.00 0.00 80 1014.9
20260507181329 11 117 14.5 16.1 0.00 0.00 0.00 80 1014.9
20260507181229 11 116 12.9 19.3 0.00 0.00 0.00 80 1014.8
20260507181129 11 131 14.5 19.3 0.00 0.00 0.00 80 1014.8
20260507181029 11 121 12.9 19.3 0.00 0.00 0.00 80 1014.9
20260507180929 11 108 14.5 19.3 0.00 0.00 0.00 81 1014.9
20260507180829 11 121 14.5 19.3 0.00 0.00 0.00 81 1014.8
20260507180729 11 111 12.9 19.3 0.00 0.00 0.00 81 1014.8
20260507180629 11 120 16.1 19.3 0.00 0.00 0.00 80 1014.8
20260507180529 11 120 16.1 19.3 0.00 0.00 0.00 80 1014.8
20260507180428 11 112 14.5 19.3 0.00 0.00 0.00 80 1014.8
20260507180328 11 114 14.5 19.3 0.00 0.00 0.00 80 1014.8
20260507180229 11 123 16.1 19.3 0.00 0.00 0.00 80 1014.9
20260507180128 11 118 16.1 20.9 0.00 0.00 0.00 80 1014.9
20260507180028 11 112 14.5 19.3 0.00 0.00 0.00 80 1014.9
20260507175928 11 111 14.5 19.3 0.00 0.00 0.00 80 1014.9
20260507175828 11 113 12.9 19.3 0.00 0.00 0.00 81 1014.9
20260507175728 11 121 11.3 14.5 0.00 0.00 0.00 81 1014.9
20260507175628 11 135 11.3 14.5 0.00 0.00 0.00 81 1014.9
20260507175528 11 133 11.3 14.5 0.00 0.00 0.00 81 1014.9
20260507175428 11 126 12.9 16.1 0.00 0.00 0.00 81 1014.9
20260507175328 11 129 12.9 16.1 0.00 0.00 0.00 81 1014.9
20260507175228 11 132 12.9 19.3 0.00 0.00 0.00 81 1014.9
20260507175128 11 127 12.9 16.1 0.00 0.00 0.00 81 1014.9
20260507175027 11 118 12.9 19.3 0.00 0.00 0.00 81 1014.9
20260507174927 11 128 11.3 16.1 0.00 0.00 0.00 81 1014.9
20260507174827 11 128 11.3 16.1 0.00 0.00 0.00 81 1014.9
20260507174727 11 116 11.3 16.1 0.00 0.00 0.00 81 1014.9
20260507174627 11 110 9.7 16.1 0.00 0.00 0.00 81 1014.9
20260507174527 11 121 11.3 12.9 0.00 0.00 0.00 80 1014.9
20260507174427 11 130 14.5 19.3 0.00 0.00 0.00 80 1014.9
20260507174327 11 124 14.5 19.3 0.00 0.00 0.00 81 1014.9
20260507174227 11 134 11.3 19.3 0.00 0.00 0.00 81 1014.9
20260507174127 11 134 11.3 14.5 0.00 0.00 0.00 81 1014.9
20260507174027 11 140 12.9 19.3 0.00 0.00 0.00 81 1014.9
20260507173927 11 130 12.9 19.3 0.00 0.00 0.00 81 1014.9
20260507173827 11 122 11.3 14.5 0.00 0.00 0.00 81 1014.9
20260507173726 11 120 12.9 16.1 0.00 0.00 0.00 81 1014.9
20260507173626 11 130 12.9 16.1 0.00 0.00 0.00 80 1014.9
20260507173526 11 121 12.9 19.3 0.00 0.00 0.00 80 1014.9
20260507173426 12 108 14.5 19.3 0.00 0.00 0.00 81 1014.9
20260507173326 12 113 11.3 19.3 0.00 0.00 0.00 81 1015.0
20260507173226 12 131 11.3 14.5 0.00 0.00 0.00 81 1015.0
20260507173126 12 131 12.9 14.5 0.00 0.00 0.00 81 1015.0
20260507173026 12 131 11.3 16.1 0.00 0.00 0.00 81 1015.0
20260507172926 12 138 9.7 12.9 0.00 0.00 0.00 81 1015.0
20260507172826 12 134 9.7 12.9 0.00 0.00 0.00 81 1015.0
20260507172726 11 133 12.9 16.1 0.00 0.00 0.00 81 1015.0
20260507172626 11 117 12.9 19.3 0.00 0.00 0.00 81 1015.0
20260507172526 11 144 12.9 19.3 0.00 0.00 0.00 81 1015.0
20260507172426 11 139 12.9 19.3 0.00 0.00 0.00 81 1015.0
20260507172325 12 139 14.5 19.3 0.00 0.00 0.00 80 1015.0
20260507172225 12 127 14.5 19.3 0.00 0.00 0.00 81 1015.0
20260507172125 12 138 11.3 16.1 0.00 0.00 0.00 81 1015.0
20260507172025 12 143 9.7 14.5 0.00 0.00 0.00 81 1015.0
20260507171925 12 146 11.3 14.5 0.00 0.00 0.00 81 1015.0
20260507171825 11 155 11.3 14.5 0.00 0.00 0.00 81 1015.0
20260507171725 11 140 14.5 19.3 0.00 0.00 0.00 81 1014.9
20260507171625 11 123 12.9 19.3 0.00 0.00 0.00 80 1014.9
20260507171525 12 126 12.9 19.3 0.00 0.00 0.00 81 1015.0
20260507171425 11 127 11.3 16.1 0.00 0.00 0.00 81 1014.9
20260507171325 11 136 12.9 16.1 0.00 0.00 0.00 81 1015.0
20260507171225 11 134 11.3 19.3 0.00 0.00 0.00 82 1014.9
20260507171124 11 140 11.3 14.5 0.00 0.00 0.00 82 1015.0
20260507171024 11 129 12.9 19.3 0.00 0.00 0.00 82 1015.0
20260507170924 11 132 14.5 19.3 0.00 0.00 0.00 81 1015.0
20260507170824 11 117 16.1 20.9 0.00 0.00 0.00 82 1015.1
20260507170724 11 119 14.5 20.9 0.00 0.00 0.00 82 1015.0
20260507170624 11 124 12.9 20.9 0.00 0.00 0.00 83 1015.0
20260507170524 11 120 14.5 19.3 0.00 0.00 0.00 82 1015.1
20260507170424 11 130 14.5 20.9 0.00 0.00 0.00 82 1015.0
20260507170324 11 140 14.5 19.3 0.00 0.00 0.00 82 1015.0
20260507170224 11 120 16.1 19.3 0.00 0.00 0.00 82 1015.1
20260507170124 11 124 12.9 19.3 0.00 0.00 0.00 82 1015.0
20260507170024 11 142 14.5 19.3 0.00 0.00 0.00 82 1015.0
20260507165924 11 132 14.5 19.3 0.00 0.00 0.00 82 1015.1
20260507165824 11 133 16.1 22.5 0.00 0.00 0.00 82 1015.1
20260507165723 11 132 12.9 20.9 0.00 0.00 0.00 83 1015.0
20260507165623 11 132 12.9 19.3 0.00 0.00 0.00 82 1015.1
20260507165523 11 127 16.1 22.5 0.00 0.00 0.00 82 1015.1
20260507165423 11 125 16.1 22.5 0.00 0.00 0.00 82 1015.1
20260507165323 11 128 19.3 22.5 0.00 0.00 0.00 82 1015.1
20260507165223 11 130 16.1 22.5 0.00 0.00 0.00 82 1015.0
20260507165123 11 134 14.5 19.3 0.00 0.00 0.00 82 1015.0
20260507165023 11 114 16.1 20.9 0.00 0.00 0.00 82 1015.1
20260507164923 11 112 19.3 20.9 0.00 0.00 0.00 82 1015.1
20260507164823 11 123 19.3 22.5 0.00 0.00 0.00 81 1015.1
20260507164723 11 123 19.3 22.5 0.00 0.00 0.00 81 1015.1
20260507164623 11 122 19.3 20.9 0.00 0.00 0.00 81 1015.0
20260507164523 12 130 14.5 22.5 0.00 0.00 0.00 82 1015.0
20260507164423 12 128 14.5 16.1 0.00 0.00 0.00 82 1015.0
20260507164322 12 127 14.5 20.9 0.00 0.00 0.00 82 1015.0
20260507164222 12 127 14.5 16.1 0.00 0.00 0.00 82 1015.0
20260507164122 12 125 14.5 19.3 0.00 0.00 0.00 82 1015.0
20260507164022 12 122 12.9 19.3 0.00 0.00 0.00 82 1015.0
20260507163922 12 138 11.3 19.3 0.00 0.00 0.00 82 1015.0
20260507163822 12 107 12.9 16.1 0.00 0.00 0.00 82 1015.0
20260507163722 12 103 14.5 19.3 0.00 0.00 0.00 82 1015.0
20260507163622 12 129 14.5 19.3 0.00 0.00 0.00 82 1015.0
20260507163522 12 136 16.1 19.3 0.00 0.00 0.00 82 1015.0
20260507163422 12 126 19.3 22.5 0.00 0.00 0.00 81 1015.0
20260507163322 12 115 16.1 20.9 0.00 0.00 0.00 81 1015.0
20260507163222 12 111 19.3 22.5 0.00 0.00 0.00 81 1015.0
20260507163121 12 119 19.3 19.3 0.00 0.00 0.00 81 1015.0
20260507163021 12 113 14.5 20.9 0.00 0.00 0.00 82 1015.1
20260507162921 12 131 12.9 19.3 0.00 0.00 0.00 81 1015.0
20260507162821 12 110 16.1 19.3 0.00 0.00 0.00 81 1015.1
20260507162721 12 110 16.1 20.9 0.00 0.00 0.00 81 1015.1
20260507162621 12 122 12.9 22.5 0.00 0.00 0.00 81 1015.1
20260507162451 12 114 14.5 19.3 0.00 0.00 0.00 79 1015.1
20260507162351 12 122 16.1 20.9 0.00 0.00 0.00 80 1015.0
20260507162221 12 118 11.3 20.9 0.00 0.00 0.00 81 1015.1
20260507162051 12 148 11.3 16.1 0.00 0.00 0.00 81 1015.1
20260507161951 12 127 14.5 19.3 0.00 0.00 0.00 81 1015.1
20260507161851 12 118 12.9 19.3 0.00 0.00 0.00 81 1015.1
20260507161721 12 125 11.3 16.1 0.00 0.00 0.00 81 1015.1
20260507161621 12 147 11.3 14.5 0.00 0.00 0.00 81 1015.1
20260507161521 12 138 12.9 19.3 0.00 0.00 0.00 81 1015.1
20260507161351 12 145 11.3 16.1 0.00 0.00 0.00 81 1015.1
20260507161221 12 144 12.9 12.9 0.00 0.00 0.00 80 1015.2
20260507161051 12 143 11.3 19.3 0.00 0.00 0.00 81 1015.1
20260507160951 12 136 12.9 19.3 0.00 0.00 0.00 80 1015.2
20260507160821 12 139 12.9 19.3 0.00 0.00 0.00 80 1015.2
20260507160651 12 140 11.3 12.9 0.00 0.00 0.00 81 1015.1
20260507160551 12 145 9.7 19.3 0.00 0.00 0.00 81 1015.1
20260507160451 12 166 8.0 11.3 0.00 0.00 0.00 81 1015.1
20260507160351 12 144 11.3 12.9 0.00 0.00 0.00 81 1015.2
20260507160251 12 119 12.9 19.3 0.00 0.00 0.00 81 1015.2
20260507160151 12 122 14.5 19.3 0.00 0.00 0.00 81 1015.2
20260507160051 12 137 12.9 19.3 0.00 0.00 0.00 81 1015.2
20260507155921 12 135 12.9 16.1 0.00 0.00 0.00 82 1015.1
20260507155751 12 132 16.1 20.9 0.00 0.00 0.00 80 1015.1
20260507155651 12 114 16.1 20.9 0.00 0.00 0.00 81 1015.1
20260507155551 12 126 14.5 22.5 0.00 0.00 0.00 81 1015.1
20260507155451 12 128 12.9 19.3 0.00 0.00 0.00 81 1015.2
20260507155351 12 143 12.9 16.1 0.00 0.00 0.00 81 1015.2
20260507155251 12 136 12.9 19.3 0.00 0.00 0.00 80 1015.2
20260507155121 12 129 14.5 19.3 0.00 0.00 0.00 80 1015.2
20260507154951 12 116 12.9 20.9 0.00 0.00 0.00 81 1015.2
20260507154821 12 126 12.9 19.3 0.00 0.00 0.00 81 1015.2
20260507154651 12 132 14.5 19.3 0.00 0.00 0.00 80 1015.2
20260507154521 12 142 14.5 16.1 0.00 0.00 0.00 80 1015.2
20260507154421 12 142 12.9 16.1 0.00 0.00 0.00 80 1015.2
20260507154251 12 124 16.1 19.3 0.00 0.00 0.00 78 1015.2
20260507154121 12 129 12.9 19.3 0.00 0.00 0.00 79 1015.3
20260507154021 12 149 9.7 19.3 0.00 0.00 0.00 79 1015.3
20260507153921 12 156 11.3 12.9 0.00 0.00 0.00 79 1015.2
20260507153751 12 144 11.3 14.5 0.00 0.00 0.00 79 1015.2
20260507153651 12 165 11.3 16.1 0.00 0.00 0.00 79 1015.2
20260507153551 12 147 9.7 16.1 0.00 0.00 0.00 80 1015.3
20260507153421 12 144 11.3 12.9 0.00 0.00 0.00 80 1015.3
20260507153251 12 127 11.3 16.1 0.00 0.00 0.00 79 1015.3
20260507153151 12 142 12.9 16.1 0.00 0.00 0.00 79 1015.3
20260507153051 12 153 11.3 19.3 0.00 0.00 0.00 80 1015.3
20260507152921 12 156 12.9 16.1 0.00 0.00 0.00 80 1015.3
20260507152821 12 149 12.9 19.3 0.00 0.00 0.00 80 1015.3
20260507152651 12 123 11.3 20.9 0.00 0.00 0.00 80 1015.3
20260507152521 12 144 12.9 16.1 0.00 0.00 0.00 79 1015.3
20260507152351 12 133 14.5 19.3 0.00 0.00 0.00 78 1015.3
20260507152251 12 121 12.9 19.3 0.00 0.00 0.00 79 1015.3
20260507152151 12 136 12.9 14.5 0.00 0.00 0.00 79 1015.3
20260507152021 12 145 12.9 19.3 0.00 0.00 0.00 79 1015.3
20260507151851 12 144 11.3 16.1 0.00 0.00 0.00 79 1015.3
20260507151751 12 123 12.9 16.1 0.00 0.00 0.00 79 1015.3
20260507151651 12 132 12.9 16.1 0.00 0.00 0.00 80 1015.4
20260507151551 12 129 9.7 16.1 0.00 0.00 0.00 80 1015.4
20260507151451 12 149 11.3 19.3 0.00 0.00 0.00 80 1015.4
20260507151321 12 154 11.3 14.5 0.00 0.00 0.00 80 1015.4
20260507151221 12 123 12.9 19.3 0.00 0.00 0.00 80 1015.4
20260507151051 12 134 14.5 16.1 0.00 0.00 0.00 79 1015.4
20260507150921 12 124 12.9 19.3 0.00 0.00 0.00 79 1015.4
20260507150821 12 133 11.3 16.1 0.00 0.00 0.00 79 1015.4
20260507150721 12 113 12.9 16.1 0.00 0.00 0.00 79 1015.4
20260507150621 12 133 11.3 14.5 0.00 0.00 0.00 79 1015.4
20260507150521 12 119 12.9 16.1 0.00 0.00 0.00 79 1015.4
20260507150351 12 138 9.7 19.3 0.00 0.00 0.00 79 1015.4
20260507150251 12 143 12.9 19.3 0.00 0.00 0.00 78 1015.4
20260507150121 12 136 12.9 16.1 0.00 0.00 0.00 78 1015.4
20260507150021 12 133 14.5 19.3 0.00 0.00 0.00 77 1015.4
20260507145851 12 137 11.3 16.1 0.00 0.00 0.00 78 1015.5
20260507145751 12 133 14.5 19.3 0.00 0.00 0.00 78 1015.5
20260507145651 12 130 9.7 19.3 0.00 0.00 0.00 78 1015.5
20260507145551 12 151 11.3 12.9 0.00 0.00 0.00 77 1015.5
20260507145451 12 145 11.3 14.5 0.00 0.00 0.00 76 1015.4
20260507145351 12 132 12.9 16.1 0.00 0.00 0.00 76 1015.5
20260507145250 13 138 9.7 16.1 0.00 0.00 0.00 77 1015.5
20260507145150 12 158 9.7 9.7 0.00 0.00 0.00 76 1015.5
20260507145050 13 147 11.3 14.5 0.00 0.00 0.00 76 1015.4
20260507144950 13 138 12.9 12.9 0.00 0.00 0.00 76 1015.5
20260507144850 13 157 11.3 19.3 0.00 0.00 0.00 76 1015.5
20260507144750 13 154 12.9 14.5 0.00 0.00 0.00 76 1015.5
20260507144650 13 165 11.3 19.3 0.00 0.00 0.00 76 1015.5
20260507144550 13 169 11.3 19.3 0.00 0.00 0.00 76 1015.5
20260507144450 13 159 11.3 14.5 0.00 0.00 0.00 76 1015.5
20260507144350 13 150 9.7 14.5 0.00 0.00 0.00 76 1015.5
20260507144250 13 139 8.0 12.9 0.00 0.00 0.00 76 1015.5
20260507144150 13 174 12.9 14.5 0.00 0.00 0.00 76 1015.5
20260507144050 13 157 9.7 16.1 0.00 0.00 0.00 75 1015.5
20260507143950 13 153 12.9 14.5 0.00 0.00 0.00 74 1015.5
20260507143849 13 120 11.3 16.1 0.00 0.00 0.00 74 1015.6
20260507143749 13 143 8.0 12.9 0.00 0.00 0.00 75 1015.6
20260507143649 13 199 9.7 9.7 0.00 0.00 0.00 75 1015.6
20260507143549 13 175 9.7 16.1 0.00 0.00 0.00 76 1015.6
20260507143449 13 157 9.7 12.9 0.00 0.00 0.00 76 1015.6
20260507143349 13 203 8.0 12.9 0.00 0.00 0.00 77 1015.7
20260507143249 13 190 9.7 8.0 0.00 0.00 0.00 76 1015.7
20260507143149 13 147 9.7 16.1 0.00 0.00 0.00 77 1015.6
20260507143049 13 156 8.0 12.9 0.00 0.00 0.00 76 1015.6
20260507142949 13 138 12.9 16.1 0.00 0.00 0.00 75 1015.7
20260507142849 13 160 12.9 16.1 0.00 0.00 0.00 76 1015.6
20260507142749 13 165 11.3 16.1 0.00 0.00 0.00 76 1015.7
20260507142649 13 160 9.7 14.5 0.00 0.00 0.00 76 1015.6
20260507142549 13 169 12.9 16.1 0.00 0.00 0.00 75 1015.7
20260507142449 13 140 12.9 19.3 0.00 0.00 0.00 76 1015.7
20260507142349 13 129 11.3 20.9 0.00 0.00 0.00 76 1015.7
20260507142249 13 159 11.3 14.5 0.00 0.00 0.00 76 1015.7
20260507142149 13 175 11.3 14.5 0.00 0.00 0.00 76 1015.7
20260507142048 13 172 11.3 14.5 0.00 0.00 0.00 76 1015.7
20260507141948 13 169 11.3 16.1 0.00 0.00 0.00 77 1015.7
20260507141848 13 167 9.7 14.5 0.00 0.00 0.00 77 1015.7
20260507141748 13 163 11.3 14.5 0.00 0.00 0.00 77 1015.7
20260507141618 13 128 11.3 16.1 0.00 0.00 0.00 77 1015.7
20260507141518 13 144 11.3 14.5 0.00 0.00 0.00 76 1015.7
20260507141418 13 149 11.3 19.3 0.00 0.00 0.00 76 1015.7
20260507141318 13 152 12.9 14.5 0.00 0.00 0.00 76 1015.7
20260507141218 13 161 9.7 19.3 0.00 0.00 0.00 77 1015.7
20260507141118 13 177 8.0 12.9 0.00 0.00 0.00 77 1015.8
20260507141018 13 173 4.8 11.3 0.00 0.00 0.00 78 1015.8
20260507140918 13 170 9.7 11.3 0.00 0.00 0.00 78 1015.8
20260507140818 13 163 11.3 14.5 0.00 0.00 0.00 77 1015.8
20260507140718 13 152 12.9 14.5 0.00 0.00 0.00 78 1015.8
20260507140618 13 162 11.3 19.3 0.00 0.00 0.00 78 1015.8
20260507140518 13 154 11.3 12.9 0.00 0.00 0.00 77 1015.9
20260507140418 13 152 12.9 16.1 0.00 0.00 0.00 77 1015.9
20260507140318 13 164 11.3 19.3 0.00 0.00 0.00 77 1015.9
20260507140217 13 147 9.7 12.9 0.00 0.00 0.00 77 1015.9
20260507140117 13 166 11.3 16.1 0.00 0.00 0.00 77 1015.9
20260507140017 13 140 12.9 14.5 0.00 0.00 0.00 76 1015.8
20260507135917 13 136 11.3 16.1 0.00 0.00 0.00 77 1015.9
20260507135817 13 160 9.7 16.1 0.00 0.00 0.00 77 1015.8
20260507135717 13 177 9.7 12.9 0.00 0.00 0.00 77 1015.8
20260507135617 13 172 11.3 19.3 0.00 0.00 0.00 76 1015.9
20260507135517 13 147 8.0 14.5 0.00 0.00 0.00 77 1015.9
20260507135417 13 194 11.3 14.5 0.00 0.00 0.00 76 1015.9
20260507135317 13 161 12.9 19.3 0.00 0.00 0.00 76 1015.9
20260507135217 13 167 12.9 19.3 0.00 0.00 0.00 76 1015.9
20260507135117 13 156 11.3 16.1 0.00 0.00 0.00 76 1015.9
20260507135017 13 157 12.9 14.5 0.00 0.00 0.00 76 1015.9
20260507134917 13 163 9.7 22.5 0.00 0.00 0.00 76 1015.9
20260507134817 13 178 9.7 12.9 0.00 0.00 0.00 76 1015.9
20260507134717 13 167 11.3 19.3 0.00 0.00 0.00 76 1015.9
20260507134617 13 168 12.9 19.3 0.00 0.00 0.00 76 1015.9
20260507134516 13 164 12.9 16.1 0.00 0.00 0.00 77 1015.9
20260507134416 13 190 11.3 20.9 0.00 0.00 0.00 77 1016.0
20260507134316 13 165 12.9 14.5 0.00 0.00 0.00 77 1016.0
20260507134216 13 146 12.9 19.3 0.00 0.00 0.00 77 1015.9
20260507134116 13 164 11.3 14.5 0.00 0.00 0.00 77 1015.9
20260507134016 13 167 11.3 14.5 0.00 0.00 0.00 76 1016.0
20260507133916 13 160 11.3 16.1 0.00 0.00 0.00 76 1015.9
20260507133816 13 166 12.9 19.3 0.00 0.00 0.00 76 1015.9
20260507133716 13 173 12.9 19.3 0.00 0.00 0.00 77 1015.9
20260507133616 13 161 12.9 19.3 0.00 0.00 0.00 77 1015.9
20260507133516 13 180 8.0 14.5 0.00 0.00 0.00 78 1015.9
20260507133416 13 177 11.3 14.5 0.00 0.00 0.00 78 1015.9
20260507133316 13 179 9.7 16.1 0.00 0.00 0.00 79 1016.0
20260507133216 13 198 12.9 16.1 0.00 0.00 0.00 78 1015.9
20260507133116 13 124 12.9 19.3 0.00 0.00 0.00 78 1016.0
20260507133016 13 156 12.9 19.3 0.00 0.00 0.00 78 1016.0
20260507132916 13 146 12.9 19.3 0.00 0.00 0.00 78 1016.0
20260507132816 13 160 11.3 16.1 0.00 0.00 0.00 78 1016.0
20260507132646 13 144 11.3 20.9 0.00 0.00 0.00 78 1016.0
20260507132546 13 143 11.3 12.9 0.00 0.00 0.00 77 1016.0
20260507132446 13 139 12.9 16.1 0.00 0.00 0.00 77 1016.0
20260507132346 13 178 11.3 16.1 0.00 0.00 0.00 78 1016.0
20260507132246 13 171 11.3 14.5 0.00 0.00 0.00 78 1016.0
20260507132146 12 173 12.9 14.5 0.00 0.00 0.00 77 1016.0
20260507132016 13 136 12.9 16.1 0.00 0.00 0.00 76 1016.0
20260507131916 13 135 14.5 16.1 0.00 0.00 0.00 77 1016.0
20260507131816 13 139 12.9 22.5 0.00 0.00 0.00 76 1016.0
20260507131716 13 133 9.7 16.1 0.00 0.00 0.00 77 1016.0
20260507131546 13 170 9.7 14.5 0.00 0.00 0.00 77 1016.1
20260507131446 13 164 9.7 14.5 0.00 0.00 0.00 78 1016.1
20260507131316 13 169 9.7 14.5 0.00 0.00 0.00 78 1016.1
20260507131216 13 155 12.9 19.3 0.00 0.00 0.00 77 1016.1
20260507131046 13 152 11.3 19.3 0.00 0.00 0.00 77 1016.1
20260507130916 13 180 8.0 16.1 0.00 0.00 0.00 77 1016.1
20260507130746 13 148 12.9 16.1 0.00 0.00 0.00 76 1016.1
20260507130646 13 167 11.3 19.3 0.00 0.00 0.00 77 1016.1
20260507130546 13 156 11.3 12.9 0.00 0.00 0.00 77 1016.1
20260507130446 13 156 12.9 14.5 0.00 0.00 0.00 76 1016.1
20260507130346 13 131 11.3 19.3 0.00 0.00 0.00 77 1016.0
20260507130216 13 149 9.7 14.5 0.00 0.00 0.00 77 1016.1
20260507130116 13 144 11.3 16.1 0.00 0.00 0.00 76 1016.1
20260507130016 13 153 11.3 16.1 0.00 0.00 0.00 77 1016.1
20260507125916 13 184 9.7 11.3 0.00 0.00 0.00 77 1016.1
20260507125816 13 170 11.3 11.3 0.00 0.00 0.00 76 1016.1
20260507125716 13 166 16.1 19.3 0.00 0.00 0.00 76 1016.1
20260507125546 13 161 9.7 14.5 0.00 0.00 0.00 76 1016.1
20260507125446 13 163 11.3 14.5 0.00 0.00 0.00 76 1016.1
20260507125316 13 155 12.9 16.1 0.00 0.00 0.00 77 1016.1
20260507125216 13 167 11.3 19.3 0.00 0.00 0.00 78 1016.1
20260507125046 13 156 9.7 14.5 0.00 0.00 0.00 78 1016.1
20260507124916 12 176 11.3 14.5 0.00 0.00 0.00 78 1016.1
20260507124746 12 149 12.9 20.9 0.00 0.00 0.00 78 1016.2
20260507124646 12 157 11.3 16.1 0.00 0.00 0.00 77 1016.1
20260507124546 12 149 12.9 19.3 0.00 0.00 0.00 77 1016.1
20260507124446 12 157 12.9 19.3 0.00 0.00 0.00 77 1016.2
20260507124346 13 146 12.9 14.5 0.00 0.00 0.00 77 1016.2
20260507124216 13 131 11.3 19.3 0.00 0.00 0.00 77 1016.2
20260507124116 13 157 12.9 16.1 0.00 0.00 0.00 77 1016.2
20260507123946 13 175 11.3 19.3 0.00 0.00 0.00 77 1016.2
20260507123846 13 146 12.9 16.1 0.00 0.00 0.00 76 1016.2
20260507123746 13 131 12.9 19.3 0.00 0.00 0.00 76 1016.2
20260507123616 13 153 11.3 16.1 0.00 0.00 0.00 76 1016.2
20260507123516 13 161 11.3 14.5 0.00 0.00 0.00 76 1016.2
20260507123346 13 151 11.3 14.5 0.00 0.00 0.00 76 1016.2
20260507123216 13 160 11.3 14.5 0.00 0.00 0.00 76 1016.2
20260507123046 13 157 9.7 20.9 0.00 0.00 0.00 76 1016.2
20260507122916 13 159 11.3 12.9 0.00 0.00 0.00 76 1016.1
20260507122816 13 162 12.9 19.3 0.00 0.00 0.00 76 1016.2
20260507122716 13 170 11.3 19.3 0.00 0.00 0.00 76 1016.1
20260507122616 13 185 9.7 14.5 0.00 0.00 0.00 77 1016.2
20260507122446 13 194 11.3 12.9 0.00 0.00 0.00 76 1016.2
20260507122346 13 143 11.3 16.1 0.00 0.00 0.00 77 1016.2
20260507122216 13 149 11.3 12.9 0.00 0.00 0.00 77 1016.2
20260507122116 13 144 8.0 12.9 0.00 0.00 0.00 77 1016.2
20260507122016 13 205 9.7 11.3 0.00 0.00 0.00 77 1016.2
20260507121916 13 189 9.7 16.1 0.00 0.00 0.00 78 1016.2
20260507121746 13 132 11.3 19.3 0.00 0.00 0.00 77 1016.2
20260507121646 13 144 12.9 19.3 0.00 0.00 0.00 77 1016.2
20260507121516 13 145 9.7 19.3 0.00 0.00 0.00 78 1016.2
20260507121416 13 164 9.7 16.1 0.00 0.00 0.00 78 1016.2
20260507121316 13 174 11.3 12.9 0.00 0.00 0.00 77 1016.2
20260507121216 13 150 12.9 16.1 0.00 0.00 0.00 77 1016.2
20260507121046 13 157 11.3 16.1 0.00 0.00 0.00 78 1016.2
20260507120916 13 167 11.3 19.3 0.00 0.00 0.00 77 1016.2
20260507120816 13 154 11.3 14.5 0.00 0.00 0.00 78 1016.3
20260507120646 13 136 9.7 19.3 0.00 0.00 0.00 78 1016.2
20260507120546 13 154 11.3 12.9 0.00 0.00 0.00 78 1016.2
20260507120416 13 175 9.7 12.9 0.00 0.00 0.00 78 1016.2
20260507120246 13 136 12.9 19.3 0.00 0.00 0.00 77 1016.2
20260507120146 13 136 12.9 19.3 0.00 0.00 0.00 76 1016.2
20260507120016 13 142 12.9 19.3 0.00 0.00 0.00 75 1016.2
20260507115846 13 143 9.7 19.3 0.00 0.00 0.00 76 1016.2
20260507115746 13 221 9.7 14.5 0.00 0.00 0.00 77 1016.2
20260507115646 13 172 8.0 11.3 0.00 0.00 0.00 77 1016.2
20260507115516 13 179 11.3 9.7 0.00 0.00 0.00 76 1016.2
20260507115416 13 154 12.9 19.3 0.00 0.00 0.00 76 1016.2
20260507115316 13 138 9.7 16.1 0.00 0.00 0.00 76 1016.3
20260507115146 13 164 12.9 19.3 0.00 0.00 0.00 76 1016.3
20260507115046 13 159 12.9 19.3 0.00 0.00 0.00 75 1016.3
20260507114916 13 139 9.7 19.3 0.00 0.00 0.00 76 1016.3
20260507114746 13 196 11.3 14.5 0.00 0.00 0.00 76 1016.3
20260507114646 13 198 11.3 14.5 0.00 0.00 0.00 76 1016.3
20260507114516 13 207 11.3 14.5 0.00 0.00 0.00 76 1016.3
20260507114415 13 167 14.5 16.1 0.00 0.00 0.00 75 1016.3
20260507114315 13 165 14.5 19.3 0.00 0.00 0.00 76 1016.3
20260507114145 13 175 9.7 16.1 0.00 0.00 0.00 77 1016.3
20260507114044 13 195 11.3 12.9 0.00 0.00 0.00 76 1016.3
20260507113944 13 150 12.9 19.3 0.00 0.00 0.00 76 1016.3
20260507113844 13 158 11.3 16.1 0.00 0.00 0.00 76 1016.3
20260507113744 13 174 9.7 19.3 0.00 0.00 0.00 76 1016.3
20260507113644 13 195 9.7 12.9 0.00 0.00 0.00 76 1016.3
20260507113514 13 186 11.3 16.1 0.00 0.00 0.00 76 1016.3
20260507113414 13 199 12.9 16.1 0.00 0.00 0.00 76 1016.3
20260507113314 13 146 11.3 16.1 0.00 0.00 0.00 76 1016.3
20260507113214 13 155 8.0 16.1 0.00 0.00 0.00 77 1016.3
20260507113114 13 199 9.7 11.3 0.00 0.00 0.00 76 1016.4
20260507112944 13 202 8.0 11.3 0.00 0.00 0.00 76 1016.3
20260507112814 13 219 11.3 14.5 0.00 0.00 0.00 76 1016.4
20260507112644 13 192 9.7 14.5 0.00 0.00 0.00 78 1016.3
20260507112514 13 181 9.7 14.5 0.00 0.00 0.00 77 1016.3
20260507112414 13 157 11.3 14.5 0.00 0.00 0.00 77 1016.3
20260507112314 13 149 12.9 19.3 0.00 0.00 0.00 77 1016.3
20260507112214 13 163 11.3 19.3 0.00 0.00 0.00 76 1016.3
20260507112114 13 153 11.3 19.3 0.00 0.00 0.00 77 1016.3
20260507112014 13 170 9.7 14.5 0.00 0.00 0.00 77 1016.3
20260507111844 13 175 8.0 9.7 0.00 0.00 0.00 77 1016.3
20260507111714 13 193 9.7 12.9 0.00 0.00 0.00 77 1016.3
20260507111544 13 147 12.9 19.3 0.00 0.00 0.00 76 1016.3
20260507111444 13 134 9.7 19.3 0.00 0.00 0.00 76 1016.3
20260507111314 13 184 11.3 12.9 0.00 0.00 0.00 76 1016.3
20260507111144 13 146 11.3 14.5 0.00 0.00 0.00 76 1016.3
20260507111044 13 152 11.3 16.1 0.00 0.00 0.00 76 1016.3
20260507110914 13 167 12.9 16.1 0.00 0.00 0.00 76 1016.3
20260507110814 13 167 11.3 19.3 0.00 0.00 0.00 77 1016.3
20260507110714 13 191 9.7 14.5 0.00 0.00 0.00 77 1016.3
20260507110544 13 188 9.7 16.1 0.00 0.00 0.00 77 1016.3
20260507110444 13 189 9.7 12.9 0.00 0.00 0.00 77 1016.3
20260507110344 13 164 9.7 16.1 0.00 0.00 0.00 77 1016.4
20260507110214 13 165 9.7 14.5 0.00 0.00 0.00 78 1016.4
20260507110114 13 166 8.0 14.5 0.00 0.00 0.00 77 1016.4
20260507110014 13 167 9.7 11.3 0.00 0.00 0.00 77 1016.3
20260507105844 13 157 12.9 16.1 0.00 0.00 0.00 76 1016.4
20260507105714 13 162 12.9 19.3 0.00 0.00 0.00 77 1016.4
20260507105614 13 174 11.3 19.3 0.00 0.00 0.00 76 1016.4
20260507105513 13 153 12.9 19.3 0.00 0.00 0.00 76 1016.3
20260507105344 13 150 12.9 16.1 0.00 0.00 0.00 76 1016.4
20260507105244 13 163 12.9 16.1 0.00 0.00 0.00 77 1016.4
20260507105113 13 169 12.9 16.1 0.00 0.00 0.00 76 1016.4
20260507105014 13 152 12.9 19.3 0.00 0.00 0.00 76 1016.4
20260507104914 13 157 12.9 19.3 0.00 0.00 0.00 76 1016.4
20260507104814 13 175 11.3 14.5 0.00 0.00 0.00 77 1016.4
20260507104644 13 213 9.7 11.3 0.00 0.00 0.00 76 1016.4
20260507104514 13 152 12.9 16.1 0.00 0.00 0.00 76 1016.4
20260507104414 13 167 14.5 19.3 0.00 0.00 0.00 76 1016.4
20260507104314 13 168 12.9 20.9 0.00 0.00 0.00 76 1016.4
20260507104144 13 162 14.5 19.3 0.00 0.00 0.00 76 1016.4
20260507104015 13 173 9.7 19.3 0.00 0.00 0.00 77 1016.4
20260507103844 13 193 11.3 11.3 0.00 0.00 0.00 77 1016.4
20260507103743 13 170 12.9 16.1 0.00 0.00 0.00 77 1016.4
20260507103613 13 158 11.3 16.1 0.00 0.00 0.00 77 1016.4
20260507103513 13 171 8.0 14.5 0.00 0.00 0.00 77 1016.4
20260507103413 13 209 8.0 9.7 0.00 0.00 0.00 77 1016.4
20260507103313 13 174 12.9 12.9 0.00 0.00 0.00 76 1016.4
20260507103213 13 163 12.9 20.9 0.00 0.00 0.00 77 1016.4
20260507103043 13 193 11.3 12.9 0.00 0.00 0.00 77 1016.4
20260507102913 13 170 12.9 16.1 0.00 0.00 0.00 77 1016.4
20260507102743 13 191 9.7 16.1 0.00 0.00 0.00 78 1016.4
20260507102613 13 173 9.7 12.9 0.00 0.00 0.00 77 1016.4
20260507102513 13 158 12.9 16.1 0.00 0.00 0.00 77 1016.4
20260507102413 13 159 12.9 20.9 0.00 0.00 0.00 77 1016.4
20260507102313 13 154 12.9 20.9 0.00 0.00 0.00 77 1016.4
20260507102143 13 159 12.9 19.3 0.00 0.00 0.00 78 1016.4
20260507102013 13 165 12.9 19.3 0.00 0.00 0.00 79 1016.4
20260507101843 13 183 8.0 12.9 0.00 0.00 0.00 78 1016.3
20260507101743 13 220 11.3 12.9 0.00 0.00 0.00 78 1016.4
20260507101643 13 180 11.3 16.1 0.00 0.00 0.00 78 1016.4
20260507101543 13 170 11.3 19.3 0.00 0.00 0.00 78 1016.3
20260507101443 13 200 12.9 14.5 0.00 0.00 0.00 78 1016.3
20260507101343 13 189 12.9 19.3 0.00 0.00 0.00 78 1016.3
20260507101243 13 205 14.5 19.3 0.00 0.00 0.00 78 1016.3
20260507101143 13 165 12.9 19.3 0.00 0.00 0.00 78 1016.3
20260507101013 13 208 12.9 19.3 0.00 0.00 0.00 78 1016.4
20260507100844 13 168 12.9 19.3 0.00 0.00 0.00 78 1016.4
20260507100743 13 206 12.9 19.3 0.00 0.00 0.00 78 1016.3
20260507100643 13 209 11.3 19.3 0.00 0.00 0.00 78 1016.4
20260507100513 13 176 9.7 14.5 0.00 0.00 0.00 79 1016.4
20260507100413 13 204 9.7 11.3 0.00 0.00 0.00 79 1016.4
20260507100243 13 195 9.7 12.9 0.00 0.00 0.00 79 1016.4
20260507100143 12 200 11.3 12.9 0.00 0.00 0.00 79 1016.4
20260507100043 12 163 11.3 14.5 0.00 0.00 0.00 79 1016.4
20260507095913 12 173 11.3 19.3 0.00 0.00 0.00 79 1016.4
20260507095813 12 195 14.5 16.1 0.00 0.00 0.00 79 1016.4
20260507095713 12 179 14.5 20.9 0.00 0.00 0.00 79 1016.4
20260507095613 12 186 12.9 19.3 0.00 0.00 0.00 79 1016.3
20260507095513 12 172 12.9 19.3 0.00 0.00 0.00 80 1016.4
20260507095343 12 165 14.5 19.3 0.00 0.00 0.00 79 1016.4
20260507095243 12 157 14.5 20.9 0.00 0.00 0.00 80 1016.4
20260507095113 12 184 11.3 19.3 0.00 0.00 0.00 80 1016.4
20260507094943 12 161 14.5 24.1 0.00 0.00 0.00 80 1016.4
20260507094813 12 167 11.3 22.5 0.00 0.00 0.00 80 1016.4
20260507094643 12 166 14.5 20.9 0.00 0.00 0.00 79 1016.4
20260507094543 12 167 14.5 22.5 0.00 0.00 0.00 79 1016.4
20260507094443 12 184 14.5 20.9 0.00 0.00 0.00 79 1016.4
20260507094343 12 190 14.5 19.3 0.00 0.00 0.00 79 1016.4
20260507094243 12 170 12.9 19.3 0.00 0.00 0.00 79 1016.4
20260507094143 12 180 14.5 16.1 0.00 0.00 0.00 79 1016.4
20260507094043 12 165 14.5 20.9 0.00 0.00 0.00 79 1016.4
20260507093943 12 159 12.9 16.1 0.00 0.00 0.00 79 1016.4
20260507093843 12 167 12.9 16.1 0.00 0.00 0.00 79 1016.4
20260507093743 12 179 12.9 20.9 0.00 0.00 0.00 80 1016.4
20260507093643 12 179 11.3 16.1 0.00 0.00 0.00 80 1016.4
20260507093543 12 163 12.9 19.3 0.00 0.00 0.00 79 1016.4
20260507093413 12 167 12.9 19.3 0.00 0.00 0.00 80 1016.3
20260507093313 12 169 11.3 19.3 0.00 0.00 0.00 80 1016.4
20260507093213 12 169 11.3 19.3 0.00 0.00 0.00 80 1016.3
20260507093043 12 163 12.9 19.3 0.00 0.00 0.00 80 1016.3
20260507092943 12 173 11.3 14.5 0.00 0.00 0.00 80 1016.3
20260507092843 12 154 12.9 20.9 0.00 0.00 0.00 80 1016.3
20260507092743 12 183 11.3 19.3 0.00 0.00 0.00 80 1016.3
20260507092613 12 176 12.9 19.3 0.00 0.00 0.00 80 1016.3
20260507092513 12 159 12.9 20.9 0.00 0.00 0.00 80 1016.3
20260507092413 12 149 14.5 19.3 0.00 0.00 0.00 79 1016.3
20260507092313 12 165 16.1 22.5 0.00 0.00 0.00 80 1016.3
20260507092213 12 163 16.1 22.5 0.00 0.00 0.00 80 1016.3
20260507092113 12 155 11.3 20.9 0.00 0.00 0.00 80 1016.3
20260507092013 12 175 9.7 14.5 0.00 0.00 0.00 80 1016.3
20260507091913 12 206 11.3 16.1 0.00 0.00 0.00 80 1016.3
20260507091813 12 185 11.3 16.1 0.00 0.00 0.00 81 1016.3
20260507091713 12 188 9.7 16.1 0.00 0.00 0.00 81 1016.3
20260507091613 12 200 11.3 12.9 0.00 0.00 0.00 80 1016.3
20260507091513 12 154 12.9 19.3 0.00 0.00 0.00 81 1016.3
20260507091413 12 169 12.9 19.3 0.00 0.00 0.00 81 1016.3
20260507091312 12 163 12.9 20.9 0.00 0.00 0.00 81 1016.3
20260507091212 12 167 14.5 19.3 0.00 0.00 0.00 80 1016.2
20260507091112 12 164 14.5 20.9 0.00 0.00 0.00 80 1016.2
20260507091012 12 173 11.3 19.3 0.00 0.00 0.00 81 1016.2
20260507090912 12 193 14.5 19.3 0.00 0.00 0.00 80 1016.2
20260507090812 12 164 16.1 22.5 0.00 0.00 0.00 81 1016.2
20260507090712 12 156 11.3 22.5 0.00 0.00 0.00 81 1016.3
20260507090612 12 179 12.9 19.3 0.00 0.00 0.00 81 1016.2
20260507090512 12 159 14.5 20.9 0.00 0.00 0.00 81 1016.3
20260507090412 12 157 14.5 20.9 0.00 0.00 0.00 81 1016.3
20260507090312 12 180 11.3 19.3 0.00 0.00 0.00 81 1016.3
20260507090212 12 204 11.3 12.9 0.00 0.00 0.00 81 1016.2
20260507090042 12 159 14.5 20.9 0.00 0.00 0.00 81 1016.3
20260507085942 12 156 16.1 19.3 0.00 0.00 0.00 81 1016.3
20260507085842 12 165 19.3 22.5 0.00 0.00 0.00 81 1016.2
20260507085742 12 154 14.5 20.9 0.00 0.00 0.00 81 1016.3
20260507085641 12 166 14.5 19.3 0.00 0.00 0.00 82 1016.2
20260507085541 12 174 11.3 20.9 0.00 0.00 0.00 82 1016.2
20260507085441 12 176 11.3 16.1 0.00 0.00 0.00 82 1016.3
20260507085341 11 181 9.7 16.1 0.00 0.00 0.00 81 1016.3
20260507085241 11 177 12.9 20.9 0.00 0.00 0.00 81 1016.3
20260507085141 11 159 14.5 19.3 0.00 0.00 0.00 81 1016.2
20260507085041 11 163 16.1 19.3 0.00 0.00 0.00 81 1016.3
20260507084941 11 156 16.1 22.5 0.00 0.00 0.00 81 1016.3
20260507084841 11 165 11.3 19.3 0.00 0.00 0.00 82 1016.3
20260507084741 11 162 11.3 16.1 0.00 0.00 0.00 81 1016.2
20260507084641 11 152 14.5 19.3 0.00 0.00 0.00 82 1016.2
20260507084541 11 147 12.9 19.3 0.00 0.00 0.00 82 1016.3
20260507084441 11 157 9.7 14.5 0.00 0.00 0.00 82 1016.2
20260507084341 11 153 11.3 19.3 0.00 0.00 0.00 82 1016.2
20260507084241 11 149 14.5 16.1 0.00 0.00 0.00 82 1016.2
20260507084141 11 157 14.5 19.3 0.00 0.00 0.00 82 1016.2
20260507084041 11 151 16.1 20.9 0.00 0.00 0.00 82 1016.2
20260507083940 11 137 14.5 20.9 0.00 0.00 0.00 82 1016.2
20260507083840 11 155 16.1 19.3 0.00 0.00 0.00 82 1016.2
20260507083740 11 154 16.1 24.1 0.00 0.00 0.00 82 1016.2
20260507083640 11 150 14.5 19.3 0.00 0.00 0.00 82 1016.2
20260507083540 11 152 14.5 19.3 0.00 0.00 0.00 82 1016.2
20260507083440 11 168 14.5 20.9 0.00 0.00 0.00 82 1016.2
20260507083340 11 144 12.9 19.3 0.00 0.00 0.00 82 1016.2
20260507083240 11 150 14.5 19.3 0.00 0.00 0.00 82 1016.2
20260507083140 11 159 14.5 20.9 0.00 0.00 0.00 82 1016.2
20260507083040 11 161 12.9 22.5 0.00 0.00 0.00 82 1016.2
20260507082940 11 166 12.9 19.3 0.00 0.00 0.00 82 1016.2
20260507082840 11 158 12.9 16.1 0.00 0.00 0.00 82 1016.2
20260507082740 11 159 12.9 19.3 0.00 0.00 0.00 82 1016.2
20260507082640 11 158 12.9 19.3 0.00 0.00 0.00 82 1016.2
20260507082539 11 150 12.9 24.1 0.00 0.00 0.00 82 1016.2
20260507082439 11 160 11.3 24.1 0.00 0.00 0.00 82 1016.2
20260507082339 11 149 11.3 19.3 0.00 0.00 0.00 82 1016.2
20260507082239 11 147 11.3 19.3 0.00 0.00 0.00 82 1016.2
20260507082139 11 161 12.9 14.5 0.00 0.00 0.00 82 1016.2
20260507082039 11 150 14.5 20.9 0.00 0.00 0.00 82 1016.2
20260507081939 11 151 12.9 19.3 0.00 0.00 0.00 82 1016.2
20260507081840 11 160 12.9 16.1 0.00 0.00 0.00 82 1016.2
20260507081739 11 171 12.9 20.9 0.00 0.00 0.00 82 1016.2
20260507081639 11 153 12.9 19.3 0.00 0.00 0.00 82 1016.2
20260507081539 11 168 12.9 16.1 0.00 0.00 0.00 82 1016.2
20260507081439 11 158 12.9 19.3 0.00 0.00 0.00 82 1016.2
20260507081339 11 147 11.3 16.1 0.00 0.00 0.00 82 1016.2
20260507081239 11 151 11.3 16.1 0.00 0.00 0.00 82 1016.2
20260507081138 11 153 9.7 16.1 0.00 0.00 0.00 82 1016.2
20260507081038 11 159 9.7 16.1 0.00 0.00 0.00 82 1016.2
20260507080938 11 164 11.3 14.5 0.00 0.00 0.00 82 1016.2
20260507080838 11 161 11.3 16.1 0.00 0.00 0.00 82 1016.2
20260507080738 11 160 12.9 16.1 0.00 0.00 0.00 82 1016.2
20260507080638 11 146 12.9 20.9 0.00 0.00 0.00 82 1016.2
20260507080538 11 152 11.3 16.1 0.00 0.00 0.00 82 1016.2
20260507080438 11 154 12.9 19.3 0.00 0.00 0.00 82 1016.2
20260507080338 11 155 14.5 22.5 0.00 0.00 0.00 82 1016.2
20260507080238 11 150 11.3 19.3 0.00 0.00 0.00 82 1016.2
20260507080138 11 159 11.3 16.1 0.00 0.00 0.00 82 1016.2
20260507080038 11 154 11.3 16.1 0.00 0.00 0.00 82 1016.2
20260507075938 11 162 11.3 14.5 0.00 0.00 0.00 83 1016.2
20260507075837 11 177 14.5 19.3 0.00 0.00 0.00 83 1016.2
20260507075737 11 158 16.1 19.3 0.00 0.00 0.00 83 1016.2
20260507075637 11 153 12.9 22.5 0.00 0.00 0.00 83 1016.1
20260507075537 11 165 12.9 16.1 0.00 0.00 0.00 83 1016.1
20260507075437 11 144 11.3 20.9 0.00 0.00 0.00 83 1016.2
20260507075337 11 165 11.3 12.9 0.00 0.00 0.00 83 1016.1
20260507075237 11 158 12.9 19.3 0.00 0.00 0.00 83 1016.1
20260507075137 11 168 14.5 20.9 0.00 0.00 0.00 83 1016.1
20260507075037 11 153 16.1 19.3 0.00 0.00 0.00 83 1016.1
20260507074937 11 148 14.5 24.1 0.00 0.00 0.00 83 1016.1
20260507074837 11 156 12.9 19.3 0.00 0.00 0.00 83 1016.1
20260507074737 11 151 11.3 16.1 0.00 0.00 0.00 83 1016.1
20260507074637 11 171 9.7 14.5 0.00 0.00 0.00 83 1016.2
20260507074537 11 148 9.7 16.1 0.00 0.00 0.00 83 1016.2
20260507074437 11 147 9.7 16.1 0.00 0.00 0.00 83 1016.1
20260507074337 11 154 11.3 12.9 0.00 0.00 0.00 83 1016.1
20260507074236 11 136 12.9 19.3 0.00 0.00 0.00 83 1016.0
20260507074136 11 149 12.9 14.5 0.00 0.00 0.00 83 1016.0
20260507074036 11 137 14.5 20.9 0.00 0.00 0.00 83 1016.0
20260507073936 11 148 12.9 19.3 0.00 0.00 0.00 83 1016.0
20260507073836 11 146 12.9 19.3 0.00 0.00 0.00 83 1016.0
20260507073736 11 139 16.1 20.9 0.00 0.00 0.00 83 1016.0
20260507073636 11 134 19.3 20.9 0.00 0.03 0.00 83 1016.0
20260507073536 11 128 14.5 24.1 0.00 0.03 0.00 83 1015.9
20260507073436 11 137 14.5 19.3 0.00 0.03 0.00 83 1015.9
20260507073336 11 137 12.9 16.1 0.00 0.03 0.00 83 1015.9
20260507073236 11 149 14.5 19.3 0.00 0.03 0.00 83 1015.9
20260507073136 11 141 14.5 20.9 0.00 0.03 0.00 83 1015.9
20260507073036 11 138 12.9 19.3 0.00 0.03 0.00 83 1015.9
20260507072936 11 144 12.9 19.3 0.00 0.03 0.00 83 1015.9
20260507072836 11 141 14.5 20.9 0.00 0.03 0.00 83 1015.9
20260507072736 11 140 14.5 19.3 0.00 0.03 0.00 83 1015.9
20260507072636 11 121 16.1 19.3 0.00 0.03 0.00 83 1015.9
20260507072536 11 124 12.9 20.9 0.00 0.03 0.00 83 1015.9
20260507072435 11 137 14.5 19.3 0.00 0.03 0.00 83 1015.9
20260507072335 11 130 12.9 19.3 0.00 0.03 0.00 83 1015.9
20260507072235 11 132 12.9 16.1 0.00 0.03 0.00 83 1015.9
20260507072135 11 133 14.5 22.5 0.00 0.03 0.00 83 1015.9
20260507072035 11 130 11.3 20.9 0.00 0.03 0.00 83 1015.9
20260507071935 11 135 11.3 16.1 0.00 0.03 0.00 83 1015.9
20260507071835 11 131 14.5 19.3 0.00 0.03 0.00 83 1015.9
20260507071735 11 133 12.9 20.9 0.00 0.03 0.00 83 1015.9
20260507071635 11 141 11.3 19.3 0.00 0.03 0.00 83 1015.9
20260507071535 11 129 14.5 16.1 0.00 0.03 0.00 83 1015.9
20260507071435 11 130 12.9 19.3 0.00 0.03 0.00 83 1015.9
20260507071335 11 120 12.9 16.1 0.00 0.03 0.00 83 1015.8
20260507071235 11 137 12.9 16.1 0.00 0.03 0.00 83 1015.9
20260507071135 11 130 12.9 16.1 0.00 0.03 0.00 83 1015.8
20260507071035 11 129 14.5 19.3 0.00 0.03 0.00 84 1015.8
20260507070905 11 127 14.5 20.9 0.00 0.03 0.00 84 1015.8
20260507070805 11 135 14.5 20.9 0.00 0.03 0.00 84 1015.8
20260507070704 11 135 14.5 19.3 0.00 0.03 0.00 84 1015.8
20260507070604 11 125 12.9 19.3 0.00 0.03 0.00 84 1015.7
20260507070504 11 131 16.1 20.9 0.00 0.03 0.00 84 1015.7
20260507070404 11 121 16.1 20.9 0.00 0.03 0.00 84 1015.7
20260507070304 11 127 12.9 19.3 0.00 0.03 0.00 84 1015.7
20260507070204 11 133 12.9 16.1 0.00 0.03 0.00 84 1015.6
20260507070104 11 132 14.5 19.3 0.00 0.03 0.00 84 1015.6
20260507070008 11 132 16.1 19.3 0.00 0.03 0.00 84 1015.6
20260507065904 11 138 12.9 25.7 0.00 0.03 0.00 84 1015.6
20260507065804 11 130 14.5 20.9 0.00 0.03 0.00 84 1015.6
20260507065704 11 132 14.5 16.1 0.00 0.03 0.00 84 1015.6
20260507065604 11 133 16.1 19.3 0.00 0.03 0.00 84 1015.6
20260507065504 11 132 14.5 20.9 0.00 0.03 0.00 84 1015.6
20260507065404 11 137 14.5 20.9 0.00 0.03 0.00 84 1015.6
20260507065306 11 137 14.5 19.3 0.00 0.03 0.00 84 1015.7
20260507065204 11 127 12.9 19.3 0.00 0.03 0.00 84 1015.7
20260507065104 11 126 12.9 19.3 0.00 0.03 0.00 84 1015.7
20260507065004 11 131 12.9 16.1 0.00 0.03 0.00 84 1015.7
20260507064903 11 118 14.5 16.1 0.00 0.03 0.00 84 1015.7
20260507064803 11 127 12.9 19.3 0.00 0.03 0.00 85 1015.7
20260507064703 11 137 11.3 14.5 0.00 0.03 0.00 85 1015.7
20260507064603 11 134 12.9 19.3 0.00 0.03 0.00 85 1015.7
20260507064503 10 135 11.3 16.1 0.00 0.03 0.00 85 1015.7
20260507064403 10 134 12.9 14.5 0.00 0.03 0.00 85 1015.7
20260507064303 10 139 14.5 20.9 0.00 0.03 0.00 85 1015.7
20260507064203 10 142 12.9 19.3 0.00 0.03 0.00 85 1015.7
20260507064103 10 141 12.9 19.3 0.00 0.03 0.00 85 1015.7
20260507064003 10 129 11.3 20.9 0.00 0.03 0.00 85 1015.7
20260507063903 10 146 12.9 16.1 0.00 0.03 0.00 85 1015.7
20260507063803 10 136 12.9 19.3 0.00 0.03 0.00 85 1015.8
20260507063703 10 132 12.9 16.1 0.00 0.03 0.00 85 1015.8
20260507063602 10 139 14.5 19.3 0.00 0.03 0.00 85 1015.8
20260507063502 10 128 14.5 22.5 0.00 0.03 0.00 86 1015.8
20260507063402 10 123 12.9 19.3 0.00 0.03 0.00 86 1015.8
20260507063302 10 139 11.3 19.3 0.00 0.03 0.00 86 1015.8
20260507063202 10 144 11.3 14.5 0.00 0.03 0.00 86 1015.8
20260507063102 10 140 12.9 19.3 0.00 0.03 0.00 86 1015.8
20260507063002 10 139 9.7 19.3 0.00 0.03 0.00 86 1015.8
20260507062902 10 154 9.7 11.3 0.00 0.03 0.00 86 1015.8
20260507062802 10 122 9.7 16.1 0.00 0.03 0.00 86 1015.8
20260507062702 10 126 9.7 12.9 0.00 0.03 0.00 86 1015.8
20260507062602 10 104 11.3 12.9 0.00 0.03 0.00 86 1015.8
20260507062502 10 113 9.7 14.5 0.00 0.03 0.00 86 1015.8
20260507062402 10 123 9.7 12.9 0.00 0.03 0.00 86 1015.8
20260507062305 10 127 11.3 11.3 0.00 0.03 0.00 86 1015.8
20260507062202 10 113 12.9 14.5 0.00 0.03 0.00 86 1015.8
20260507062102 10 103 11.3 16.1 0.00 0.03 0.00 86 1015.8
20260507062001 10 115 12.9 16.1 0.00 0.03 0.00 86 1015.8
20260507061831 10 108 11.3 12.9 0.00 0.03 0.00 86 1015.8
20260507061731 10 97 11.3 19.3 0.00 0.03 0.00 86 1015.8
20260507061631 10 99 11.3 14.5 0.00 0.03 0.00 86 1015.8
20260507061531 10 101 12.9 19.3 0.00 0.03 0.00 86 1015.8
20260507061431 10 102 11.3 16.1 0.00 0.03 0.00 86 1015.8
20260507061331 10 105 9.7 14.5 0.00 0.03 0.00 86 1015.8
20260507061231 10 96 9.7 12.9 0.00 0.03 0.00 86 1015.8
20260507061131 10 100 11.3 12.9 0.00 0.03 0.00 86 1015.8
20260507061031 10 90 12.9 19.3 0.00 0.03 0.00 85 1015.8
20260507060931 10 92 12.9 19.3 0.00 0.03 0.00 85 1015.8
20260507060831 10 92 12.9 19.3 0.00 0.03 0.00 85 1015.8
20260507060731 10 100 9.7 16.1 0.00 0.03 0.00 86 1015.8
20260507060631 10 101 9.7 12.9 0.00 0.03 0.00 86 1015.8
20260507060531 10 106 9.7 12.9 0.00 0.03 0.00 86 1015.8
20260507060430 10 115 11.3 14.5 0.00 0.03 0.00 86 1015.8
20260507060330 10 115 12.9 16.1 0.00 0.03 0.00 86 1015.8
20260507060230 10 108 11.3 16.1 0.00 0.03 0.00 86 1015.8
20260507060130 10 109 11.3 12.9 0.00 0.03 0.00 85 1015.8
20260507060030 10 110 11.3 12.9 0.00 0.03 0.00 85 1015.7
20260507055930 10 111 12.9 14.5 0.00 0.03 0.00 85 1015.7
20260507055830 10 105 11.3 19.3 0.00 0.03 0.00 85 1015.7
20260507055730 10 112 11.3 12.9 0.00 0.03 0.00 85 1015.7
20260507055630 10 104 12.9 14.5 0.00 0.03 0.00 85 1015.7
20260507055530 10 115 12.9 19.3 0.00 0.03 0.00 85 1015.7
20260507055430 10 113 12.9 19.3 0.00 0.03 0.00 85 1015.7
20260507055330 10 114 11.3 14.5 0.00 0.03 0.00 85 1015.7
20260507055230 10 111 9.7 16.1 0.00 0.03 0.00 85 1015.7
20260507055130 10 103 11.3 12.9 0.00 0.03 0.00 85 1015.7
20260507055029 10 106 12.9 14.5 0.00 0.03 0.00 85 1015.6
20260507054929 10 101 11.3 19.3 0.00 0.03 0.00 85 1015.6
20260507054829 10 99 11.3 14.5 0.00 0.03 0.00 85 1015.6
20260507054729 10 104 11.3 14.5 0.00 0.03 0.00 85 1015.6
20260507054629 10 106 9.7 16.1 0.00 0.03 0.00 85 1015.6
20260507054529 10 107 9.7 11.3 0.00 0.03 0.00 85 1015.6
20260507054429 10 110 9.7 9.7 0.00 0.03 0.00 85 1015.5
20260507054259 10 111 12.9 19.3 0.00 0.03 0.00 84 1015.5
20260507054159 10 118 11.3 16.1 0.00 0.03 0.00 84 1015.5
20260507054059 10 113 11.3 14.5 0.00 0.03 0.00 84 1015.5
20260507053959 10 112 12.9 14.5 0.00 0.03 0.00 84 1015.5
20260507053859 10 116 12.9 19.3 0.00 0.03 0.00 84 1015.5
20260507053759 10 108 11.3 16.1 0.00 0.03 0.00 84 1015.5
20260507053659 10 110 11.3 14.5 0.00 0.03 0.00 84 1015.5
20260507053559 10 118 11.3 14.5 0.00 0.03 0.00 84 1015.5
20260507053459 10 112 12.9 19.3 0.00 0.03 0.00 84 1015.5
20260507053358 10 113 9.7 20.9 0.00 0.03 0.00 84 1015.5
20260507053258 10 111 11.3 12.9 0.00 0.03 0.00 84 1015.4
20260507053158 10 102 9.7 14.5 0.00 0.03 0.00 84 1015.4
20260507053058 10 105 11.3 11.3 0.00 0.03 0.00 84 1015.4
20260507052958 10 93 12.9 14.5 0.00 0.03 0.00 84 1015.4
20260507052858 10 110 12.9 19.3 0.00 0.03 0.00 84 1015.4
20260507052758 10 116 12.9 16.1 0.00 0.03 0.00 84 1015.4
20260507052658 10 107 9.7 16.1 0.00 0.03 0.00 84 1015.4
20260507052558 10 102 9.7 12.9 0.00 0.03 0.00 84 1015.4
20260507052458 10 108 12.9 14.5 0.00 0.03 0.00 84 1015.4
20260507052358 10 103 11.3 16.1 0.00 0.03 0.00 84 1015.4
20260507052258 10 101 11.3 12.9 0.00 0.03 0.00 84 1015.4
20260507052158 10 95 11.3 14.5 0.00 0.03 0.00 84 1015.4
20260507052058 10 100 12.9 19.3 0.00 0.03 0.00 84 1015.4
20260507051958 10 108 12.9 16.1 0.00 0.03 0.00 84 1015.4
20260507051857 10 105 11.3 19.3 0.00 0.03 0.00 84 1015.4
20260507051757 10 105 11.3 14.5 0.00 0.03 0.00 84 1015.4
20260507051657 10 103 12.9 16.1 0.00 0.03 0.00 84 1015.4
20260507051557 10 112 12.9 14.5 0.00 0.03 0.00 84 1015.3
20260507051457 10 102 12.9 19.3 0.00 0.03 0.00 84 1015.3
20260507051357 10 105 12.9 19.3 0.00 0.03 0.00 84 1015.3
20260507051257 10 101 12.9 16.1 0.00 0.03 0.00 84 1015.3
20260507051157 10 92 11.3 16.1 0.00 0.03 0.00 84 1015.3
20260507051057 10 103 9.7 19.3 0.00 0.03 0.00 84 1015.3
20260507050957 10 100 9.7 9.7 0.00 0.03 0.00 84 1015.3
20260507050857 10 91 9.7 11.3 0.00 0.03 0.00 84 1015.3
20260507050757 10 96 11.3 12.9 0.00 0.03 0.00 84 1015.3
20260507050657 10 89 12.9 14.5 0.00 0.03 0.00 84 1015.3
20260507050557 10 92 12.9 19.3 0.00 0.03 0.00 83 1015.3
20260507050457 10 102 11.3 16.1 0.00 0.03 0.00 83 1015.3
20260507050356 10 87 9.7 12.9 0.00 0.03 0.00 83 1015.3
20260507050256 10 90 9.7 11.3 0.00 0.03 0.00 83 1015.4
20260507050156 10 91 9.7 12.9 0.00 0.03 0.00 83 1015.4
20260507050056 10 104 9.7 12.9 0.00 0.03 0.00 83 1015.3
20260507045956 10 94 9.7 12.9 0.00 0.03 0.00 83 1015.3
20260507045826 10 90 9.7 12.9 0.00 0.03 0.00 83 1015.3
20260507045726 10 108 11.3 11.3 0.00 0.03 0.00 83 1015.3
20260507045626 10 89 11.3 14.5 0.00 0.03 0.00 83 1015.3
20260507045526 10 100 11.3 16.1 0.00 0.03 0.00 83 1015.4
20260507045426 10 83 11.3 14.5 0.00 0.03 0.00 83 1015.4
20260507045326 10 95 9.7 14.5 0.00 0.03 0.00 83 1015.3
20260507045226 10 92 9.7 11.3 0.00 0.03 0.00 83 1015.3
20260507045126 9 90 11.3 12.9 0.00 0.03 0.00 83 1015.3
20260507045026 10 92 11.3 12.9 0.00 0.03 0.00 83 1015.3
20260507044926 9 89 11.3 14.5 0.00 0.03 0.00 83 1015.3
20260507044826 9 85 9.7 14.5 0.00 0.03 0.00 82 1015.3
20260507044725 10 81 11.3 11.3 0.00 0.03 0.00 82 1015.2
20260507044625 10 78 9.7 12.9 0.00 0.03 0.00 82 1015.3
20260507044525 10 81 9.7 12.9 0.00 0.03 0.00 82 1015.2
20260507044425 10 87 9.7 12.9 0.00 0.03 0.00 82 1015.2
20260507044325 10 91 11.3 14.5 0.00 0.03 0.00 82 1015.2
20260507044225 10 92 11.3 14.5 0.00 0.03 0.00 82 1015.3
20260507044125 10 91 12.9 16.1 0.00 0.03 0.00 82 1015.3
20260507044025 10 91 11.3 14.5 0.00 0.03 0.00 82 1015.2
20260507043925 10 92 12.9 14.5 0.00 0.03 0.00 82 1015.2
20260507043825 10 93 12.9 16.1 0.00 0.03 0.00 82 1015.2
20260507043725 10 102 11.3 14.5 0.00 0.03 0.00 82 1015.2
20260507043625 10 94 11.3 12.9 0.00 0.03 0.00 82 1015.2
20260507043525 10 101 11.3 12.9 0.00 0.03 0.00 82 1015.2
20260507043425 10 102 11.3 14.5 0.00 0.05 0.00 82 1015.2
20260507043325 10 97 11.3 12.9 0.00 0.05 0.00 82 1015.2
20260507043224 10 90 11.3 12.9 0.00 0.05 0.00 82 1015.2
20260507043124 10 91 12.9 14.5 0.00 0.05 0.00 82 1015.2
20260507043024 9 86 11.3 16.1 0.00 0.05 0.00 81 1015.2
20260507042924 9 109 11.3 14.5 0.00 0.05 0.00 81 1015.1
20260507042824 9 102 11.3 11.3 0.00 0.05 0.00 81 1015.2
20260507042724 9 84 11.3 14.5 0.00 0.05 0.00 81 1015.2
20260507042624 10 85 9.7 12.9 0.00 0.05 0.00 81 1015.1
20260507042524 10 95 11.3 12.9 0.00 0.05 0.00 81 1015.2
20260507042424 10 90 12.9 14.5 0.00 0.05 0.00 81 1015.2
20260507042324 10 83 12.9 16.1 0.00 0.05 0.00 81 1015.1
20260507042224 10 90 11.3 16.1 0.00 0.05 0.00 81 1015.1
20260507042054 10 90 11.3 16.1 0.00 0.05 0.00 81 1015.1
20260507041954 10 93 9.7 14.5 0.00 0.05 0.00 81 1015.1
20260507041853 10 94 11.3 12.9 0.00 0.05 0.00 81 1015.1
20260507041753 10 93 11.3 14.5 0.00 0.05 0.00 81 1015.1
20260507041623 10 91 11.3 14.5 0.00 0.05 0.00 81 1015.1
20260507041523 10 85 12.9 16.1 0.00 0.05 0.00 81 1015.1
20260507041423 10 91 12.9 16.1 0.00 0.05 0.00 80 1015.1
20260507041323 10 88 12.9 16.1 0.00 0.05 0.00 80 1015.1
20260507041223 10 100 12.9 16.1 0.00 0.05 0.00 80 1015.1
20260507041123 10 94 12.9 16.1 0.00 0.05 0.00 80 1015.1
20260507041023 10 97 12.9 14.5 0.00 0.05 0.00 80 1015.1
20260507040853 10 101 11.3 12.9 0.00 0.05 0.00 80 1015.1
20260507040753 10 92 12.9 14.5 0.00 0.05 0.00 80 1015.0
20260507040653 10 91 12.9 14.5 0.00 0.05 0.00 80 1015.1
20260507040553 10 92 12.9 16.1 0.00 0.05 0.00 79 1015.1
20260507040452 10 84 11.3 14.5 0.00 0.05 0.00 80 1015.0
20260507040352 10 91 12.9 14.5 0.00 0.05 0.00 79 1015.1
20260507040252 10 90 12.9 16.1 0.00 0.05 0.00 79 1015.1
20260507040152 10 91 11.3 16.1 0.00 0.05 0.00 79 1015.1
20260507040052 10 89 12.9 14.5 0.00 0.05 0.00 79 1015.1
20260507035952 10 90 12.9 14.5 0.00 0.05 0.00 79 1015.1
20260507035852 10 87 12.9 19.3 0.00 0.05 0.00 79 1015.0
20260507035752 10 83 14.5 19.3 0.00 0.05 0.00 79 1015.0
20260507035652 10 87 14.5 20.9 0.00 0.05 0.00 79 1015.0
20260507035552 10 90 12.9 16.1 0.00 0.05 0.00 79 1015.1
20260507035452 10 90 12.9 16.1 0.00 0.05 0.00 79 1015.0
20260507035352 10 102 12.9 19.3 0.00 0.05 0.00 79 1015.0
20260507035252 10 91 12.9 16.1 0.00 0.05 0.00 79 1015.0
20260507035152 10 92 12.9 14.5 0.00 0.05 0.00 79 1015.0
20260507035052 10 94 12.9 16.1 0.00 0.05 0.00 79 1015.0
20260507034952 10 98 11.3 19.3 0.00 0.05 0.00 79 1015.0
20260507034852 10 98 11.3 12.9 0.00 0.05 0.00 79 1015.0
20260507034751 10 91 14.5 16.1 0.00 0.05 0.00 79 1015.0
20260507034651 10 101 12.9 19.3 0.00 0.05 0.00 79 1015.0
20260507034551 10 103 11.3 14.5 0.00 0.05 0.00 79 1015.0
20260507034451 10 107 12.9 14.5 0.00 0.05 0.00 79 1015.0
20260507034351 10 97 12.9 19.3 0.00 0.05 0.00 79 1015.0
20260507034251 10 90 12.9 16.1 0.00 0.05 0.00 79 1015.0
20260507034151 10 87 12.9 16.1 0.00 0.05 0.00 79 1015.0
20260507034051 10 85 12.9 16.1 0.00 0.05 0.00 79 1015.0
20260507033951 10 89 11.3 19.3 0.00 0.05 0.00 79 1015.0
20260507033851 10 92 14.5 16.1 0.00 0.05 0.00 79 1015.0
20260507033751 10 91 12.9 19.3 0.00 0.05 0.00 79 1015.0
20260507033651 10 88 12.9 14.5 0.00 0.05 0.00 79 1014.9
20260507033551 10 87 11.3 14.5 0.00 0.05 0.00 79 1015.0
20260507033451 9 87 12.9 14.5 0.00 0.05 0.00 79 1014.9
20260507033351 10 83 11.3 16.1 0.00 0.05 0.00 79 1015.0
20260507033251 10 84 11.3 14.5 0.00 0.05 0.00 79 1014.9
20260507033151 10 82 11.3 16.1 0.00 0.05 0.00 79 1015.0
20260507033050 10 88 11.3 14.5 0.00 0.05 0.00 79 1014.9
20260507032950 10 82 9.7 12.9 0.00 0.05 0.00 79 1014.9
20260507032850 10 79 11.3 11.3 0.00 0.05 0.00 79 1014.9
20260507032750 10 82 11.3 14.5 0.00 0.05 0.00 79 1014.9
20260507032650 10 81 11.3 12.9 0.00 0.05 0.00 79 1014.9
20260507032550 10 73 11.3 14.5 0.00 0.05 0.00 78 1015.0
20260507032450 10 82 12.9 14.5 0.00 0.05 0.00 78 1014.9
20260507032350 10 82 12.9 16.1 0.00 0.05 0.00 78 1015.0
20260507032250 10 78 11.3 14.5 0.00 0.05 0.00 78 1015.0
20260507032150 10 84 11.3 14.5 0.00 0.05 0.00 78 1015.0
20260507032050 10 77 9.7 12.9 0.00 0.05 0.00 78 1015.0
20260507031950 10 84 11.3 12.9 0.00 0.05 0.00 78 1015.0
20260507031850 10 87 11.3 14.5 0.00 0.05 0.00 78 1014.9
20260507031749 10 92 11.3 14.5 0.00 0.05 0.00 78 1014.9
20260507031649 10 86 12.9 14.5 0.00 0.05 0.00 78 1015.0
20260507031549 10 83 12.9 16.1 0.00 0.05 0.00 78 1014.9
20260507031449 10 85 12.9 16.1 0.00 0.05 0.00 78 1015.0
20260507031349 10 83 11.3 16.1 0.00 0.05 0.00 78 1014.9
20260507031249 10 83 12.9 16.1 0.00 0.05 0.00 78 1015.0
20260507031149 10 83 12.9 19.3 0.00 0.05 0.00 78 1015.0
20260507031049 10 85 11.3 19.3 0.00 0.05 0.00 78 1015.0
20260507030949 10 87 12.9 14.5 0.00 0.05 0.00 78 1015.0
20260507030849 10 92 11.3 16.1 0.00 0.05 0.00 79 1014.9
20260507030749 10 86 11.3 11.3 0.00 0.05 0.00 79 1015.0
20260507030649 10 83 11.3 14.5 0.00 0.05 0.00 79 1014.9
20260507030549 10 86 11.3 14.5 0.00 0.05 0.00 79 1014.9
20260507030449 9 87 11.3 12.9 0.00 0.05 0.00 79 1014.9
20260507030349 9 80 9.7 14.5 0.00 0.05 0.00 79 1014.9
20260507030248 9 81 11.3 12.9 0.00 0.05 0.00 79 1014.9
20260507030148 9 82 11.3 14.5 0.00 0.05 0.00 79 1014.9
20260507030048 9 77 9.7 16.1 0.00 0.05 0.00 79 1015.0
20260507025918 9 85 11.3 12.9 0.00 0.05 0.00 79 1015.0
20260507025818 9 82 11.3 12.9 0.00 0.05 0.00 79 1015.0
20260507025718 9 76 11.3 16.1 0.00 0.05 0.00 79 1014.9
20260507025618 9 78 11.3 14.5 0.00 0.05 0.00 79 1014.9
20260507025518 9 78 11.3 14.5 0.00 0.05 0.00 79 1014.9
20260507025418 9 80 9.7 12.9 0.00 0.05 0.00 79 1014.9
20260507025248 9 79 9.7 11.3 0.00 0.05 0.00 79 1014.9
20260507025148 10 78 9.7 11.3 0.00 0.05 0.00 79 1014.9
20260507025048 10 84 9.7 12.9 0.00 0.05 0.00 79 1014.9
20260507024948 10 81 11.3 14.5 0.00 0.05 0.00 79 1014.9
20260507024818 10 81 9.7 12.9 0.00 0.05 0.00 79 1014.9
20260507024718 10 87 9.7 12.9 0.00 0.05 0.00 78 1014.9
20260507024617 10 85 9.7 11.3 0.00 0.05 0.00 79 1014.9
20260507024517 10 82 9.7 12.9 0.00 0.05 0.00 79 1014.9
20260507024417 10 83 9.7 12.9 0.00 0.05 0.00 78 1014.9
20260507024317 10 78 9.7 11.3 0.00 0.05 0.00 78 1014.9
20260507024217 10 81 9.7 12.9 0.00 0.05 0.00 78 1014.9
20260507024117 10 82 9.7 12.9 0.00 0.05 0.00 78 1014.9
20260507024017 10 74 11.3 12.9 0.00 0.05 0.00 78 1014.9
20260507023917 10 82 11.3 14.5 0.00 0.05 0.00 78 1014.9
20260507023817 10 83 9.7 16.1 0.00 0.05 0.00 78 1014.9
20260507023717 10 88 9.7 11.3 0.00 0.05 0.00 78 1014.9
20260507023617 10 91 9.7 9.7 0.00 0.05 0.00 78 1014.9
20260507023517 10 90 8.0 12.9 0.00 0.05 0.00 78 1014.9
20260507023417 10 91 8.0 11.3 0.00 0.05 0.00 78 1014.9
20260507023317 10 92 9.7 11.3 0.00 0.05 0.00 77 1014.9
20260507023216 10 85 9.7 11.3 0.00 0.05 0.00 77 1014.8
20260507023116 10 87 9.7 11.3 0.00 0.05 0.00 77 1014.9
20260507023016 10 88 9.7 11.3 0.00 0.05 0.00 77 1014.9
20260507022916 10 91 9.7 11.3 0.00 0.05 0.00 77 1014.9
20260507022816 10 93 9.7 11.3 0.00 0.05 0.00 77 1014.9
20260507022716 10 89 8.0 11.3 0.00 0.05 0.00 77 1014.9
20260507022616 10 94 8.0 9.7 0.00 0.05 0.00 77 1014.9
20260507022516 10 96 8.0 11.3 0.00 0.05 0.00 77 1014.9
20260507022416 10 96 9.7 12.9 0.00 0.05 0.00 77 1014.9
20260507022316 10 91 9.7 12.9 0.00 0.05 0.00 77 1014.9
20260507022216 10 88 8.0 11.3 0.00 0.05 0.00 77 1014.8
20260507022116 10 89 8.0 11.3 0.00 0.05 0.00 77 1014.9
20260507022016 10 95 9.7 9.7 0.00 0.05 0.00 77 1014.9
20260507021916 10 103 9.7 11.3 0.00 0.05 0.00 77 1014.9
20260507021816 10 96 8.0 11.3 0.00 0.05 0.00 77 1014.9
20260507021716 10 96 8.0 9.7 0.00 0.05 0.00 77 1014.9
20260507021615 10 97 9.7 11.3 0.00 0.05 0.00 78 1014.9
20260507021515 10 99 9.7 11.3 0.00 0.05 0.00 78 1014.9
20260507021415 10 87 8.0 11.3 0.00 0.05 0.00 78 1014.9
20260507021316 10 88 8.0 9.7 0.00 0.05 0.00 78 1014.9
20260507021215 10 88 8.0 12.9 0.00 0.05 0.00 78 1014.9
20260507021115 10 82 8.0 11.3 0.00 0.05 0.00 78 1014.8
20260507021015 10 76 8.0 11.3 0.00 0.05 0.00 78 1014.8
20260507020915 10 75 8.0 9.7 0.00 0.05 0.00 78 1014.9
20260507020815 10 73 8.0 9.7 0.00 0.05 0.00 78 1014.9
20260507020715 10 78 8.0 9.7 0.00 0.05 0.00 78 1014.9
20260507020615 10 78 8.0 11.3 0.00 0.05 0.00 78 1014.9
20260507020515 10 85 9.7 11.3 0.00 0.05 0.00 78 1014.9
20260507020415 10 82 8.0 11.3 0.00 0.05 0.00 77 1014.9
20260507020315 10 84 4.8 9.7 0.00 0.05 0.00 77 1014.9
20260507020215 10 85 4.8 8.0 0.00 0.05 0.00 77 1014.9
20260507020115 10 85 8.0 4.8 0.00 0.05 0.00 77 1014.9
20260507020015 10 84 8.0 9.7 0.00 0.05 0.00 77 1014.9
20260507015915 10 92 4.8 8.0 0.00 0.05 0.00 77 1014.9
20260507015814 10 88 4.8 8.0 0.00 0.05 0.00 77 1014.9
20260507015714 10 87 4.8 8.0 0.00 0.05 0.00 77 1014.9
20260507015614 10 87 8.0 8.0 0.00 0.05 0.00 77 1014.9
20260507015514 10 84 8.0 8.0 0.00 0.05 0.00 77 1014.9
20260507015414 10 83 8.0 9.7 0.00 0.05 0.00 77 1014.9
20260507015314 10 82 8.0 9.7 0.00 0.05 0.00 77 1015.0
20260507015214 10 81 8.0 9.7 0.00 0.05 0.00 77 1014.9
20260507015114 10 78 8.0 8.0 0.00 0.05 0.00 77 1014.9
20260507015014 10 84 8.0 8.0 0.00 0.05 0.00 77 1014.9
20260507014914 10 80 4.8 8.0 0.00 0.05 0.00 77 1014.9
20260507014814 10 76 8.0 4.8 0.00 0.05 0.00 77 1014.9
20260507014714 10 80 4.8 8.0 0.00 0.05 0.00 77 1014.9
20260507014614 10 80 4.8 4.8 0.00 0.05 0.00 77 1014.9
20260507014514 10 76 8.0 8.0 0.00 0.05 0.00 77 1014.9
20260507014413 10 76 8.0 9.7 0.00 0.05 0.00 77 1014.9
20260507014313 10 77 8.0 8.0 0.00 0.05 0.00 77 1014.9
20260507014213 10 81 4.8 9.7 0.00 0.05 0.00 77 1014.9
20260507014113 10 81 4.8 4.8 0.00 0.05 0.00 77 1014.9
20260507014013 10 83 4.8 8.0 0.00 0.05 0.00 78 1014.9
20260507013913 10 81 4.8 4.8 0.00 0.05 0.00 78 1014.9
20260507013813 10 76 4.8 4.8 0.00 0.05 0.00 78 1014.9
20260507013713 10 75 4.8 8.0 0.00 0.05 0.00 78 1014.9
20260507013613 10 74 8.0 8.0 0.00 0.05 0.00 78 1014.9
20260507013513 10 72 8.0 9.7 0.00 0.05 0.00 78 1014.9
20260507013413 10 82 4.8 8.0 0.00 0.05 0.00 78 1014.9
20260507013312 10 71 4.8 4.8 0.00 0.05 0.00 78 1014.9
20260507013212 10 71 8.0 9.7 0.00 0.05 0.00 79 1014.9
20260507013112 10 68 8.0 9.7 0.00 0.05 0.00 79 1014.9
20260507013012 10 68 4.8 9.7 0.00 0.05 0.00 79 1014.9
20260507012912 10 67 4.8 4.8 0.00 0.05 0.00 79 1015.0
20260507012812 10 67 4.8 4.8 0.00 0.05 0.00 79 1014.9
20260507012712 10 68 4.8 4.8 0.00 0.05 0.00 78 1014.9
20260507012612 10 65 4.8 4.8 0.00 0.05 0.00 78 1014.9
20260507012512 10 63 8.0 8.0 0.00 0.05 0.00 78 1015.0
20260507012412 10 62 8.0 8.0 0.00 0.05 0.00 78 1014.9
20260507012312 10 62 8.0 8.0 0.00 0.05 0.00 78 1014.9
20260507012212 10 62 4.8 8.0 0.00 0.05 0.00 78 1014.9
20260507012112 10 59 3.2 4.8 0.00 0.05 0.00 78 1014.9
20260507012012 10 55 3.2 4.8 0.00 0.05 0.00 78 1014.9
20260507011912 10 56 3.2 3.2 0.00 0.05 0.00 78 1014.9
20260507011812 10 52 3.2 3.2 0.00 0.05 0.00 78 1014.9
20260507011711 10 51 3.2 3.2 0.00 0.05 0.00 78 1015.0
20260507011611 10 51 3.2 3.2 0.00 0.05 0.00 78 1015.0
20260507011511 10 54 3.2 3.2 0.00 0.05 0.00 78 1015.0
20260507011411 10 57 3.2 4.8 0.00 0.05 0.00 78 1015.0
20260507011311 10 57 3.2 4.8 0.00 0.05 0.00 78 1015.0
20260507011211 10 58 3.2 3.2 0.00 0.05 0.00 78 1015.0
20260507011111 10 56 3.2 4.8 0.00 0.05 0.00 78 1015.0
20260507011011 10 58 3.2 4.8 0.00 0.05 0.00 79 1015.0
20260507010911 10 56 3.2 4.8 0.00 0.05 0.00 79 1015.0
20260507010811 10 55 3.2 4.8 0.00 0.05 0.00 80 1015.0
20260507010711 10 56 3.2 3.2 0.00 0.05 0.00 80 1015.0
20260507010611 10 58 3.2 4.8 0.00 0.05 0.00 80 1015.0
20260507010511 10 57 3.2 3.2 0.00 0.05 0.00 80 1015.0
20260507010341 10 55 3.2 3.2 0.00 0.05 0.00 81 1015.0
20260507010241 10 55 1.6 3.2 0.00 0.05 0.00 81 1015.0
20260507010141 10 54 1.6 3.2 0.00 0.05 0.00 81 1015.0
20260507010040 10 54 1.6 3.2 0.00 0.05 0.00 81 1015.0
20260507005940 10 53 1.6 4.8 0.00 0.05 0.00 81 1015.0
20260507005840 10 52 1.6 3.2 0.00 0.05 0.00 81 1015.0
20260507005740 10 52 1.6 3.2 0.00 0.05 0.00 81 1014.9
20260507005640 10 54 1.6 3.2 0.00 0.05 0.00 82 1014.9
20260507005540 10 55 1.6 1.6 0.00 0.05 0.00 82 1015.0
20260507005440 10 55 1.6 3.2 0.00 0.05 0.00 82 1015.0
20260507005340 10 55 1.6 3.2 0.00 0.05 0.00 82 1015.0
20260507005240 10 42 1.6 1.6 0.00 0.05 0.00 82 1015.0
20260507005140 10 42 1.6 3.2 0.00 0.05 0.00 82 1015.0
20260507005039 10 42 1.6 1.6 0.00 0.05 0.00 82 1015.0
20260507004939 10 42 1.6 1.6 0.00 0.05 0.00 82 1015.0
20260507004839 10 42 1.6 1.6 0.00 0.05 0.00 82 1015.0
20260507004739 10 42 1.6 1.6 0.00 0.05 0.00 82 1015.0
20260507004639 10 42 1.6 1.6 0.00 0.05 0.00 82 1015.0
20260507004539 10 42 1.6 1.6 0.00 0.05 0.00 82 1015.0
20260507004439 10 42 1.6 1.6 0.00 0.05 0.00 82 1015.0
20260507004339 10 42 1.6 1.6 0.00 0.05 0.00 82 1015.0
20260507004239 10 42 1.6 1.6 0.00 0.05 0.00 82 1015.0
20260507004139 10 42 1.6 1.6 0.00 0.05 0.00 82 1015.0
20260507004039 10 42 1.6 1.6 0.00 0.05 0.00 82 1015.0
20260507003939 10 42 1.6 1.6 0.00 0.05 0.00 82 1015.0
20260507003839 10 42 1.6 1.6 0.00 0.05 0.00 82 1015.0
20260507003739 10 42 1.6 1.6 0.00 0.05 0.00 82 1015.0
20260507003638 10 42 3.2 3.2 0.00 0.05 0.00 82 1015.0
20260507003538 10 43 3.2 3.2 0.00 0.05 0.00 82 1015.0
20260507003438 10 50 3.2 4.8 0.00 0.05 0.00 82 1015.1
20260507003338 10 44 3.2 3.2 0.00 0.05 0.00 82 1015.0
20260507003238 10 42 1.6 3.2 0.00 0.05 0.00 82 1015.1
20260507003138 10 34 1.6 3.2 0.00 0.05 0.00 81 1015.0
20260507003038 10 34 3.2 3.2 0.00 0.05 0.00 81 1015.1
20260507002938 10 38 3.2 3.2 0.00 0.05 0.00 81 1015.1
20260507002838 10 43 3.2 4.8 0.00 0.05 0.00 81 1015.1
20260507002738 10 36 3.2 4.8 0.00 0.05 0.00 81 1015.1
20260507002638 10 30 4.8 4.8 0.00 0.05 0.00 81 1015.1
20260507002538 10 24 4.8 4.8 0.00 0.05 0.00 81 1015.1
20260507002438 10 29 4.8 4.8 0.00 0.05 0.00 81 1015.1
20260507002338 10 30 3.2 4.8 0.00 0.05 0.00 81 1015.1
20260507002237 10 29 1.6 3.2 0.00 0.05 0.00 81 1015.1
20260507002137 10 28 1.6 3.2 0.00 0.05 0.00 81 1015.1
20260507002037 10 45 1.6 1.6 0.00 0.05 0.00 81 1015.1
20260507001937 10 10 1.6 3.2 0.00 0.05 0.00 81 1015.1
20260507001837 10 11 1.6 3.2 0.00 0.05 0.00 81 1015.1
20260507001737 10 30 3.2 3.2 0.00 0.05 0.00 81 1015.2
20260507001637 10 29 3.2 4.8 0.00 0.05 0.00 81 1015.1
20260507001537 10 33 3.2 4.8 0.00 0.05 0.00 81 1015.1
20260507001437 10 34 3.2 4.8 0.00 0.05 0.00 81 1015.1
20260507001337 10 34 3.2 4.8 0.00 0.05 0.00 81 1015.1
20260507001237 10 26 3.2 4.8 0.00 0.05 0.00 81 1015.1
20260507001137 10 25 1.6 3.2 0.00 0.05 0.00 81 1015.1
20260507001037 10 11 1.6 3.2 0.00 0.05 0.00 81 1015.1
20260507000937 10 25 1.6 3.2 0.00 0.05 0.00 81 1015.1
20260507000837 10 35 3.2 3.2 0.00 0.05 0.00 81 1015.1
20260507000737 10 25 1.6 3.2 0.00 0.05 0.00 81 1015.1
20260507000637 10 22 3.2 4.8 0.00 0.05 0.00 81 1015.1
20260507000536 10 6 1.6 3.2 0.00 0.05 0.00 81 1015.1
20260507000436 10 32 3.2 3.2 0.00 0.05 0.00 81 1015.1
20260507000336 10 23 3.2 3.2 0.00 0.05 0.00 81 1015.1
20260507000236 10 22 3.2 4.8 0.00 0.05 0.00 81 1015.2
20260507000136 10 0 3.2 4.8 0.00 0.05 0.00 81 1015.1
20260507000036 10 20 4.8 4.8 0.00 0.05 0.00 81 1015.1
20260506235936 10 351 3.2 4.8 0.00 0.05 0.00 81 1015.1
20260506235836 10 350 3.2 4.8 0.00 0.05 0.00 81 1015.1
20260506235706 10 346 4.8 4.8 0.00 0.05 0.00 81 1015.1
20260506235606 10 348 4.8 4.8 0.00 0.05 0.00 81 1015.1
20260506235506 10 344 4.8 4.8 0.00 0.05 0.00 81 1015.1
20260506235406 10 345 4.8 4.8 0.00 0.05 0.00 81 1015.1
20260506235307 10 353 4.8 4.8 0.00 0.05 0.00 81 1015.1
20260506235205 10 345 4.8 4.8 0.00 0.05 0.00 81 1015.1
20260506235105 10 337 4.8 4.8 0.00 0.05 0.00 81 1015.1
20260506235005 10 355 4.8 4.8 0.00 0.05 0.00 81 1015.1
20260506234905 10 342 4.8 4.8 0.00 0.05 0.00 80 1015.1
20260506234805 10 340 4.8 4.8 0.00 0.05 0.00 80 1015.0
20260506234705 10 340 4.8 4.8 0.00 0.05 0.00 80 1015.0
20260506234605 10 342 4.8 4.8 0.00 0.05 0.00 80 1015.0
20260506234505 10 344 8.0 8.0 0.00 0.05 0.00 80 1015.0
20260506234405 10 342 4.8 8.0 0.00 0.05 0.00 80 1015.0
20260506234305 10 342 4.8 8.0 0.00 0.05 0.00 80 1015.0
20260506234205 10 347 8.0 4.8 0.00 0.05 0.00 80 1015.1
20260506234105 10 351 4.8 8.0 0.00 0.05 0.00 80 1015.0
20260506234005 10 345 4.8 4.8 0.00 0.05 0.00 80 1015.0
20260506233905 10 346 4.8 4.8 0.00 0.05 0.00 80 1015.0
20260506233804 10 341 4.8 4.8 0.00 0.05 0.00 80 1015.0
20260506233704 10 339 4.8 4.8 0.00 0.05 0.00 80 1015.0
20260506233604 10 336 4.8 4.8 0.00 0.05 0.00 80 1015.0
20260506233504 10 327 4.8 4.8 0.00 0.05 0.00 80 1015.0
20260506233404 10 326 4.8 4.8 0.00 0.05 0.00 80 1015.0
20260506233304 10 325 4.8 4.8 0.00 0.05 0.00 80 1015.0
20260506233204 10 328 8.0 4.8 0.00 0.05 0.00 80 1015.0
20260506233104 10 331 4.8 8.0 0.00 0.05 0.00 80 1015.0
20260506233004 10 332 4.8 8.0 0.00 0.05 0.00 80 1015.0
20260506232834 10 330 4.8 8.0 0.00 0.05 0.00 80 1015.0
20260506232704 10 335 4.8 4.8 0.00 0.05 0.00 80 1015.0
20260506232604 10 335 4.8 4.8 0.00 0.05 0.00 80 1015.0
20260506232434 10 333 4.8 4.8 0.00 0.05 0.00 80 1015.0
20260506232334 10 334 4.8 4.8 0.00 0.05 0.00 80 1015.0
20260506232234 10 333 4.8 4.8 0.00 0.05 0.00 80 1015.0
20260506232134 10 336 4.8 4.8 0.00 0.05 0.00 80 1015.0
20260506232034 10 328 8.0 8.0 0.00 0.05 0.00 80 1015.0
20260506231904 10 332 4.8 8.0 0.00 0.05 0.00 80 1015.0
20260506231734 10 328 8.0 8.0 0.00 0.05 0.00 80 1015.0
20260506231634 10 330 8.0 8.0 0.00 0.05 0.00 80 1015.0
20260506231534 10 328 4.8 8.0 0.00 0.05 0.00 80 1015.0
20260506231404 10 334 8.0 8.0 0.00 0.05 0.00 80 1015.1
20260506231304 10 333 8.0 8.0 0.00 0.05 0.00 80 1015.0
20260506231204 10 329 8.0 8.0 0.00 0.05 0.00 80 1015.0
20260506231104 10 325 8.0 8.0 0.00 0.05 0.00 80 1015.0
20260506231004 10 328 8.0 8.0 0.00 0.05 0.00 80 1015.1
20260506230834 10 327 8.0 9.7 0.00 0.05 0.00 80 1015.1
20260506230704 10 332 8.0 9.7 0.00 0.05 0.00 80 1015.1
20260506230534 10 333 8.0 8.0 0.00 0.05 0.00 80 1015.1
20260506230434 10 333 8.0 9.7 0.00 0.05 0.00 80 1015.1
20260506230334 10 330 8.0 9.7 0.00 0.05 0.00 80 1015.1
20260506230234 10 330 8.0 8.0 0.00 0.05 0.00 80 1015.0
20260506230134 10 327 8.0 8.0 0.00 0.05 0.00 80 1015.0
20260506230034 10 328 8.0 9.7 0.00 0.05 0.00 79 1015.1
20260506225934 10 327 4.8 8.0 0.00 0.05 0.05 79 1015.1
20260506225834 10 329 4.8 8.0 0.00 0.05 0.05 79 1015.1
20260506225704 10 324 4.8 8.0 0.00 0.05 0.05 79 1015.1
20260506225604 10 325 8.0 8.0 0.00 0.05 0.05 79 1015.1
20260506225504 10 318 8.0 8.0 0.00 0.05 0.05 79 1015.1
20260506225334 10 318 8.0 8.0 0.00 0.05 0.05 79 1015.1
20260506225234 10 313 8.0 8.0 0.00 0.05 0.05 79 1015.0
20260506225104 10 313 8.0 8.0 0.00 0.05 0.05 79 1015.1
20260506224934 10 314 4.8 9.7 0.00 0.05 0.05 79 1015.1
20260506224834 10 320 4.8 8.0 0.00 0.05 0.05 79 1015.1
20260506224734 10 319 4.8 4.8 0.00 0.05 0.05 79 1015.1
20260506224634 10 320 8.0 8.0 0.00 0.05 0.05 79 1015.0
20260506224504 10 321 8.0 8.0 0.00 0.05 0.05 79 1015.1